DLH404 EDDF-KJFK

Flight info

Callsign DLH404
Flight time 8h 9m
Altitude 36000
Route OBOKA3M/25C OBOKA Z28 DIBIR DCT BUDIP DCT RAVLO Y70 OTBED L60 PENIL M144 BAGSO DCT ADBUS DCT DOGAL/M081F380 NATC ELSIR/N0469F380 N402C ALLEX DCT ENE PARCH4
Aircraft A346/H-SDE2E3FGHIJ3J4J5M1P2RWXYZ/LB1D1

Departure

Time 2026-05-07 08:38
Airport Frankfurt Main Airport (EDDF)

Arrival

Time 2026-05-07 16:47
Airport John F. Kennedy International Airport (KJFK)
Time Latitude Longitude Altitude Speed Heading
2026-05-07 08:05 50.04693 8.56163 370 ft 0 kts 340°
2026-05-07 08:22 50.04688 8.56165 371 ft 2 kts 340°
2026-05-07 08:22 50.04674 8.56174 371 ft 2 kts 340°
2026-05-07 08:22 50.04660 8.56182 371 ft 2 kts 340°
2026-05-07 08:22 50.04646 8.56190 371 ft 2 kts 339°
2026-05-07 08:23 50.04633 8.56201 371 ft 2 kts 313°
2026-05-07 08:23 50.04625 8.56220 371 ft 2 kts 289°
2026-05-07 08:23 50.04622 8.56243 371 ft 2 kts 268°
2026-05-07 08:23 50.04625 8.56265 371 ft 2 kts 247°
2026-05-07 08:24 50.04631 8.56287 371 ft 2 kts 246°
2026-05-07 08:24 50.04637 8.56308 371 ft 2 kts 249°
2026-05-07 08:24 50.04642 8.56330 371 ft 2 kts 250°
2026-05-07 08:24 50.04647 8.56352 371 ft 2 kts 250°
2026-05-07 08:25 50.04653 8.56373 371 ft 2 kts 250°
2026-05-07 08:25 50.04658 8.56395 372 ft 2 kts 250°
2026-05-07 08:25 50.04663 8.56415 372 ft 0 kts 250°
2026-05-07 08:25 50.04663 8.56416 372 ft 0 kts 250°
2026-05-07 08:26 50.04663 8.56415 372 ft 0 kts 250°
2026-05-07 08:29 50.04654 8.56378 372 ft 6 kts 250°
2026-05-07 08:29 50.04632 8.56288 371 ft 10 kts 249°
2026-05-07 08:29 50.04603 8.56168 371 ft 13 kts 250°
2026-05-07 08:29 50.04573 8.56041 371 ft 9 kts 250°
2026-05-07 08:30 50.04526 8.55960 371 ft 11 kts 205°
2026-05-07 08:30 50.04438 8.55916 370 ft 14 kts 191°
2026-05-07 08:30 50.04346 8.55928 368 ft 10 kts 161°
2026-05-07 08:30 50.04277 8.55962 365 ft 8 kts 181°
2026-05-07 08:31 50.04214 8.55920 363 ft 11 kts 191°
2026-05-07 08:31 50.04127 8.55951 360 ft 10 kts 159°
2026-05-07 08:31 50.04075 8.56017 359 ft 10 kts 102°
2026-05-07 08:31 50.04093 8.56134 361 ft 11 kts 69°
2026-05-07 08:32 50.04121 8.56250 362 ft 12 kts 69°
2026-05-07 08:32 50.04151 8.56379 364 ft 13 kts 70°
2026-05-07 08:32 50.04185 8.56521 365 ft 14 kts 70°
2026-05-07 08:32 50.04220 8.56670 366 ft 14 kts 70°
2026-05-07 08:33 50.04254 8.56813 371 ft 13 kts 70°
2026-05-07 08:33 50.04287 8.56948 373 ft 13 kts 69°
2026-05-07 08:33 50.04322 8.57092 374 ft 14 kts 70°
2026-05-07 08:33 50.04359 8.57249 375 ft 16 kts 70°
2026-05-07 08:34 50.04399 8.57419 374 ft 17 kts 69°
2026-05-07 08:34 50.04442 8.57599 373 ft 17 kts 70°
2026-05-07 08:34 50.04485 8.57776 376 ft 16 kts 70°
2026-05-07 08:34 50.04524 8.57939 379 ft 15 kts 70°
2026-05-07 08:35 50.04561 8.58097 381 ft 16 kts 70°
2026-05-07 08:35 50.04599 8.58257 383 ft 16 kts 69°
2026-05-07 08:35 50.04640 8.58423 380 ft 14 kts 69°
2026-05-07 08:35 50.04645 8.58544 375 ft 9 kts 127°
2026-05-07 08:36 50.04583 8.58596 372 ft 6 kts 160°
2026-05-07 08:36 50.04538 8.58621 370 ft 6 kts 164°
2026-05-07 08:36 50.04495 8.58592 371 ft 7 kts 231°
2026-05-07 08:36 50.04472 8.58527 374 ft 6 kts 247°
2026-05-07 08:37 50.04468 8.58512 374 ft 1 kts 250°
2026-05-07 08:37 50.04433 8.58365 379 ft 41 kts 250°
2026-05-07 08:37 50.04247 8.57579 369 ft 111 kts 250°
2026-05-07 08:37 50.03909 8.56166 355 ft 167 kts 251°
2026-05-07 08:38 50.03472 8.54346 678 ft 185 kts 251°
2026-05-07 08:38 50.03014 8.52480 1283 ft 186 kts 252°
2026-05-07 08:38 50.02501 8.50624 1885 ft 193 kts 238°
2026-05-07 08:38 50.01438 8.49387 2379 ft 201 kts 204°
2026-05-07 08:39 50.00056 8.48705 2735 ft 213 kts 198°
2026-05-07 08:39 49.98606 8.48101 3215 ft 219 kts 197°
2026-05-07 08:39 49.97127 8.47496 3787 ft 221 kts 197°
2026-05-07 08:39 49.95648 8.46871 4350 ft 223 kts 198°
2026-05-07 08:40 49.94112 8.46180 4685 ft 238 kts 199°
2026-05-07 08:40 49.92483 8.45408 4963 ft 257 kts 204°
2026-05-07 08:40 49.91020 8.43891 5599 ft 254 kts 234°
2026-05-07 08:40 49.90066 8.41654 6410 ft 249 kts 243°
2026-05-07 08:41 49.89204 8.39318 7114 ft 252 kts 245°
2026-05-07 08:41 49.88611 8.36810 7789 ft 251 kts 265°
2026-05-07 08:41 49.88571 8.34075 8299 ft 260 kts 277°
2026-05-07 08:41 49.88748 8.31222 8748 ft 274 kts 278°
2026-05-07 08:42 49.88977 8.28300 9420 ft 277 kts 285°
2026-05-07 08:42 49.89800 8.25645 10111 ft 277 kts 311°
2026-05-07 08:42 49.91284 8.23710 10634 ft 287 kts 326°
2026-05-07 08:42 49.92990 8.21933 10969 ft 304 kts 326°
2026-05-07 08:43 49.94791 8.20048 11276 ft 322 kts 325°
2026-05-07 08:43 49.96698 8.18040 11585 ft 339 kts 325°
2026-05-07 08:43 49.98673 8.15952 11879 ft 356 kts 325°
2026-05-07 08:43 50.00779 8.13719 12290 ft 369 kts 325°
2026-05-07 08:44 50.02896 8.11469 12978 ft 373 kts 325°
2026-05-07 08:44 50.05042 8.09185 13719 ft 376 kts 325°
2026-05-07 08:44 50.07185 8.06901 14407 ft 379 kts 325°
2026-05-07 08:44 50.09349 8.04590 15064 ft 383 kts 325°
2026-05-07 08:45 50.11560 8.02226 15715 ft 387 kts 325°
2026-05-07 08:45 50.13787 7.99842 16360 ft 391 kts 325°
2026-05-07 08:45 50.16026 7.97442 16982 ft 395 kts 325°
2026-05-07 08:45 50.18304 7.94999 17605 ft 398 kts 325°
2026-05-07 08:46 50.20575 7.92561 18185 ft 402 kts 325°
2026-05-07 08:46 50.22898 7.90063 18761 ft 407 kts 325°
2026-05-07 08:46 50.25218 7.87566 19331 ft 410 kts 325°
2026-05-07 08:46 50.27560 7.85042 19902 ft 414 kts 325°
2026-05-07 08:47 50.29925 7.82489 20483 ft 417 kts 325°
2026-05-07 08:47 50.32310 7.79911 21048 ft 420 kts 325°
2026-05-07 08:47 50.34714 7.77312 21604 ft 423 kts 325°
2026-05-07 08:47 50.37130 7.74694 22148 ft 426 kts 325°
2026-05-07 08:48 50.39579 7.72036 22663 ft 429 kts 325°
2026-05-07 08:48 50.42046 7.69357 23172 ft 432 kts 325°
2026-05-07 08:48 50.44494 7.66694 23657 ft 436 kts 325°
2026-05-07 08:48 50.47003 7.63961 24136 ft 439 kts 325°
2026-05-07 08:49 50.49496 7.61242 24594 ft 443 kts 325°
2026-05-07 08:49 50.52037 7.58467 25051 ft 446 kts 325°
2026-05-07 08:49 50.54569 7.55699 25500 ft 450 kts 325°
2026-05-07 08:49 50.57143 7.52879 25931 ft 453 kts 326°
2026-05-07 08:50 50.59733 7.50041 26367 ft 456 kts 326°
2026-05-07 08:50 50.62351 7.47169 26806 ft 459 kts 326°
2026-05-07 08:50 50.64964 7.44296 27219 ft 462 kts 326°
2026-05-07 08:50 50.67598 7.41394 27619 ft 465 kts 326°
2026-05-07 08:51 50.70238 7.38454 28136 ft 465 kts 324°
2026-05-07 08:51 50.72720 7.35253 28763 ft 464 kts 319°
2026-05-07 08:51 50.75016 7.31717 29386 ft 462 kts 313°
2026-05-07 08:51 50.77094 7.27894 29946 ft 461 kts 308°
2026-05-07 08:52 50.78996 7.23815 30472 ft 460 kts 306°
2026-05-07 08:52 50.80835 7.19689 30975 ft 460 kts 306°
2026-05-07 08:52 50.82656 7.15565 31410 ft 460 kts 306°
2026-05-07 08:52 50.84472 7.11453 31821 ft 460 kts 306°
2026-05-07 08:53 50.86307 7.07307 32249 ft 459 kts 306°
2026-05-07 08:53 50.88112 7.03232 32675 ft 457 kts 306°
2026-05-07 08:53 50.89951 6.99081 33084 ft 456 kts 306°
2026-05-07 08:53 50.91760 6.94998 33421 ft 455 kts 306°
2026-05-07 08:54 50.93558 6.90933 33728 ft 454 kts 306°
2026-05-07 08:54 50.95381 6.86804 34013 ft 454 kts 306°
2026-05-07 08:54 50.97185 6.82711 34296 ft 454 kts 306°
2026-05-07 08:54 50.98975 6.78641 34541 ft 455 kts 306°
2026-05-07 08:55 51.00792 6.74504 34768 ft 456 kts 306°
2026-05-07 08:55 51.02582 6.70423 34968 ft 457 kts 306°
2026-05-07 08:55 51.04414 6.66240 35185 ft 458 kts 305°
2026-05-07 08:55 51.06222 6.62102 35392 ft 459 kts 305°
2026-05-07 08:56 51.08054 6.57903 35597 ft 460 kts 305°
2026-05-07 08:56 51.09877 6.53718 35776 ft 461 kts 305°
2026-05-07 08:56 51.11912 6.49036 35955 ft 462 kts 305°
2026-05-07 08:57 51.15560 6.40623 36023 ft 464 kts 305°
2026-05-07 08:57 51.19221 6.32153 36031 ft 464 kts 304°
2026-05-07 08:58 51.22856 6.23719 36035 ft 464 kts 304°
2026-05-07 08:58 51.26490 6.15253 36026 ft 464 kts 304°
2026-05-07 08:59 51.30062 6.06742 36029 ft 463 kts 303°
2026-05-07 08:59 51.30937 6.04596 36028 ft 463 kts 303°
2026-05-07 09:00 51.33631 5.97966 36027 ft 463 kts 303°
2026-05-07 09:00 51.37249 5.89473 36023 ft 463 kts 307°
2026-05-07 09:01 51.41397 5.81545 36027 ft 463 kts 313°
2026-05-07 09:01 51.45814 5.74068 36032 ft 463 kts 314°
2026-05-07 09:02 51.50243 5.66614 36040 ft 463 kts 313°
2026-05-07 09:02 51.54685 5.59102 36043 ft 463 kts 313°
2026-05-07 09:03 51.59119 5.51569 36039 ft 464 kts 313°
2026-05-07 09:03 51.63544 5.44022 36036 ft 465 kts 313°
2026-05-07 09:04 51.67976 5.36440 36035 ft 465 kts 313°
2026-05-07 09:04 51.72368 5.28902 36036 ft 465 kts 312°
2026-05-07 09:05 51.76799 5.21275 36036 ft 465 kts 312°
2026-05-07 09:05 51.81222 5.13639 36037 ft 466 kts 312°
2026-05-07 09:06 51.85622 5.06017 36036 ft 466 kts 312°
2026-05-07 09:06 51.90019 4.98377 36038 ft 466 kts 312°
2026-05-07 09:07 51.94419 4.90709 36035 ft 465 kts 312°
2026-05-07 09:07 51.98806 4.83042 36039 ft 466 kts 312°
2026-05-07 09:08 52.03187 4.75361 36039 ft 466 kts 312°
2026-05-07 09:08 52.07571 4.67652 36047 ft 466 kts 312°
2026-05-07 09:09 52.11957 4.59915 36050 ft 466 kts 312°
2026-05-07 09:09 52.16327 4.52182 36048 ft 466 kts 312°
2026-05-07 09:10 52.20708 4.44402 36052 ft 466 kts 312°
2026-05-07 09:10 52.25063 4.36642 36052 ft 466 kts 312°
2026-05-07 09:11 52.29411 4.28873 36056 ft 466 kts 311°
2026-05-07 09:11 52.33764 4.21075 36061 ft 466 kts 311°
2026-05-07 09:12 52.38108 4.13263 36063 ft 466 kts 311°
2026-05-07 09:12 52.42454 4.05422 36071 ft 469 kts 311°
2026-05-07 09:13 52.46827 3.97505 36065 ft 471 kts 311°
2026-05-07 09:13 52.51197 3.89575 36071 ft 472 kts 312°
2026-05-07 09:14 52.55574 3.81591 36075 ft 470 kts 313°
2026-05-07 09:14 52.59929 3.73644 36080 ft 469 kts 313°
2026-05-07 09:15 52.64261 3.65712 36074 ft 468 kts 313°
2026-05-07 09:15 52.68591 3.57751 36074 ft 468 kts 313°
2026-05-07 09:16 52.72905 3.49796 36085 ft 469 kts 313°
2026-05-07 09:16 52.77242 3.41771 36088 ft 468 kts 313°
2026-05-07 09:17 52.81557 3.33762 36086 ft 468 kts 313°
2026-05-07 09:17 52.85820 3.25735 36086 ft 468 kts 310°
2026-05-07 09:18 52.89516 3.16858 36091 ft 470 kts 301°
2026-05-07 09:18 52.92287 3.07141 36088 ft 472 kts 291°
2026-05-07 09:19 52.94111 2.96698 36085 ft 474 kts 284°
2026-05-07 09:19 52.95497 2.86043 36084 ft 474 kts 283°
2026-05-07 09:20 52.96180 2.80711 35921 ft 475 kts 283°
2026-05-07 09:20 52.96864 2.75385 35985 ft 476 kts 283°
2026-05-07 09:20 52.98242 2.64693 36040 ft 475 kts 283°
2026-05-07 09:21 52.99619 2.53970 36071 ft 475 kts 283°
2026-05-07 09:21 53.00977 2.43314 36083 ft 475 kts 283°
2026-05-07 09:22 53.02334 2.32601 36081 ft 476 kts 282°
2026-05-07 09:22 53.03684 2.21876 36079 ft 476 kts 282°
2026-05-07 09:23 53.05015 2.11192 36085 ft 476 kts 282°
2026-05-07 09:23 53.06337 2.00461 36091 ft 476 kts 282°
2026-05-07 09:24 53.07650 1.89702 36083 ft 475 kts 282°
2026-05-07 09:24 53.08953 1.78962 36077 ft 475 kts 282°
2026-05-07 09:25 53.10250 1.68183 36078 ft 476 kts 282°
2026-05-07 09:25 53.11525 1.57495 36082 ft 475 kts 282°
2026-05-07 09:26 53.12800 1.46722 36078 ft 475 kts 282°
2026-05-07 09:26 53.14056 1.36023 36071 ft 475 kts 282°
2026-05-07 09:27 53.15313 1.25227 36070 ft 474 kts 281°
2026-05-07 09:28 53.17173 1.09088 36071 ft 475 kts 281°
2026-05-07 09:28 53.18397 0.98354 36066 ft 475 kts 281°
2026-05-07 09:29 53.19623 0.87507 36061 ft 474 kts 281°
2026-05-07 09:29 53.20834 0.76721 36067 ft 474 kts 281°
2026-05-07 09:30 53.22024 0.66002 36063 ft 474 kts 281°
2026-05-07 09:30 53.23212 0.55226 36064 ft 474 kts 281°
2026-05-07 09:31 53.24388 0.44448 36056 ft 475 kts 281°
2026-05-07 09:31 53.25560 0.33607 36061 ft 475 kts 280°
2026-05-07 09:32 53.26723 0.22760 36066 ft 475 kts 280°
2026-05-07 09:32 53.27871 0.11968 36058 ft 475 kts 280°
2026-05-07 09:33 53.29008 0.01163 36053 ft 475 kts 280°
2026-05-07 09:33 53.30145 -0.09735 36063 ft 475 kts 280°
2026-05-07 09:34 53.31262 -0.20539 36063 ft 475 kts 280°
2026-05-07 09:34 53.32368 -0.31342 36055 ft 474 kts 280°
2026-05-07 09:35 53.33472 -0.42239 36053 ft 475 kts 280°
2026-05-07 09:35 53.34561 -0.53071 36059 ft 475 kts 280°
2026-05-07 09:36 53.35641 -0.63934 36055 ft 475 kts 280°
2026-05-07 09:36 53.36708 -0.74740 36048 ft 475 kts 279°
2026-05-07 09:37 53.37772 -0.85631 36043 ft 474 kts 279°
2026-05-07 09:37 53.38824 -0.96523 36040 ft 474 kts 279°
2026-05-07 09:38 53.39867 -1.07411 36038 ft 474 kts 279°
2026-05-07 09:38 53.40896 -1.18260 36036 ft 474 kts 279°
2026-05-07 09:39 53.41912 -1.29096 36035 ft 475 kts 279°
2026-05-07 09:39 53.42926 -1.40019 36030 ft 474 kts 279°
2026-05-07 09:40 53.43921 -1.50867 36029 ft 474 kts 279°
2026-05-07 09:40 53.44915 -1.61787 36024 ft 474 kts 279°
2026-05-07 09:41 53.45888 -1.72598 36019 ft 473 kts 278°
2026-05-07 09:41 53.46859 -1.83511 36007 ft 473 kts 278°
2026-05-07 09:42 53.47795 -1.94345 36010 ft 473 kts 277°
2026-05-07 09:42 53.48573 -2.05323 36005 ft 473 kts 276°
2026-05-07 09:43 53.49319 -2.16203 36007 ft 473 kts 276°
2026-05-07 09:43 53.50073 -2.27149 36014 ft 473 kts 276°
2026-05-07 09:44 53.50820 -2.38053 36017 ft 472 kts 276°
2026-05-07 09:44 53.51560 -2.48976 36019 ft 472 kts 276°
2026-05-07 09:45 53.52290 -2.59892 36016 ft 472 kts 276°
2026-05-07 09:45 53.53007 -2.70763 36015 ft 472 kts 275°
2026-05-07 09:46 53.53718 -2.81678 36015 ft 472 kts 275°
2026-05-07 09:46 53.54418 -2.92583 36015 ft 472 kts 275°
2026-05-07 09:47 53.55109 -3.03523 36017 ft 471 kts 275°
2026-05-07 09:47 53.55790 -3.14458 36019 ft 472 kts 275°
2026-05-07 09:48 53.56460 -3.25385 36017 ft 471 kts 275°
2026-05-07 09:48 53.57119 -3.36302 36012 ft 471 kts 275°
2026-05-07 09:49 53.57766 -3.47187 36006 ft 471 kts 275°
2026-05-07 09:49 53.58405 -3.58084 35999 ft 471 kts 275°
2026-05-07 09:50 53.59037 -3.69050 35991 ft 471 kts 274°
2026-05-07 09:50 53.59658 -3.79998 35988 ft 471 kts 274°
2026-05-07 09:51 53.60265 -3.90890 35979 ft 470 kts 274°
2026-05-07 09:51 53.60864 -4.01841 35977 ft 470 kts 274°
2026-05-07 09:52 53.61452 -4.12727 35974 ft 471 kts 274°
2026-05-07 09:52 53.62033 -4.23689 35970 ft 471 kts 274°
2026-05-07 09:53 53.62600 -4.34579 35968 ft 470 kts 274°
2026-05-07 09:53 53.63161 -4.45534 35968 ft 470 kts 274°
2026-05-07 09:54 53.63709 -4.56456 35965 ft 470 kts 274°
2026-05-07 09:54 53.64249 -4.67404 35963 ft 470 kts 272°
2026-05-07 09:55 53.64777 -4.78336 35965 ft 470 kts 272°
2026-05-07 09:55 53.65297 -4.89266 35970 ft 469 kts 272°
2026-05-07 09:56 53.65803 -5.00127 35970 ft 469 kts 272°
2026-05-07 09:56 53.66302 -5.11086 35972 ft 469 kts 272°
2026-05-07 09:57 53.66791 -5.22014 35975 ft 469 kts 272°
2026-05-07 09:57 53.67271 -5.32946 35973 ft 469 kts 272°
2026-05-07 09:58 53.67747 -5.43890 35968 ft 469 kts 273°
2026-05-07 09:58 53.68647 -5.54732 35966 ft 471 kts 279°
2026-05-07 09:59 53.70063 -5.65486 35966 ft 471 kts 280°
2026-05-07 09:59 53.71522 -5.76227 35967 ft 471 kts 281°
2026-05-07 10:00 53.72969 -5.86994 35962 ft 471 kts 280°
2026-05-07 10:00 53.74396 -5.97734 35963 ft 471 kts 280°
2026-05-07 10:01 53.75811 -6.08467 35959 ft 470 kts 280°
2026-05-07 10:01 53.77211 -6.19179 35949 ft 470 kts 280°
2026-05-07 10:02 53.78610 -6.29952 35945 ft 470 kts 280°
2026-05-07 10:02 53.79990 -6.40672 35940 ft 470 kts 280°
2026-05-07 10:03 53.81367 -6.51441 35935 ft 470 kts 280°
2026-05-07 10:03 53.82737 -6.62240 35930 ft 469 kts 280°
2026-05-07 10:04 53.84085 -6.72948 35934 ft 469 kts 279°
2026-05-07 10:04 53.85434 -6.83766 35934 ft 469 kts 279°
2026-05-07 10:05 53.86762 -6.94490 35929 ft 469 kts 279°
2026-05-07 10:05 53.88089 -7.05279 35926 ft 469 kts 279°
2026-05-07 10:06 53.89407 -7.16084 35924 ft 469 kts 279°
2026-05-07 10:06 53.90702 -7.26800 35926 ft 468 kts 279°
2026-05-07 10:07 53.91998 -7.37600 35927 ft 468 kts 279°
2026-05-07 10:07 53.93279 -7.48360 35924 ft 468 kts 279°
2026-05-07 10:08 53.94548 -7.59108 35920 ft 467 kts 279°
2026-05-07 10:08 53.95810 -7.69879 35914 ft 467 kts 278°
2026-05-07 10:09 53.97062 -7.80658 35910 ft 467 kts 278°
2026-05-07 10:09 53.98303 -7.91438 35908 ft 466 kts 278°
2026-05-07 10:10 53.99531 -8.02188 35905 ft 466 kts 278°
2026-05-07 10:10 54.00749 -8.12953 35908 ft 466 kts 278°
2026-05-07 10:11 54.01961 -8.23738 35905 ft 466 kts 277°
2026-05-07 10:11 54.03158 -8.34487 35898 ft 465 kts 277°
2026-05-07 10:12 54.04344 -8.45235 35895 ft 465 kts 277°
2026-05-07 10:12 54.05521 -8.56001 35899 ft 464 kts 277°
2026-05-07 10:13 54.06691 -8.66797 35897 ft 464 kts 277°
2026-05-07 10:13 54.07850 -8.77561 35897 ft 464 kts 277°
2026-05-07 10:14 54.08993 -8.88279 35891 ft 463 kts 277°
2026-05-07 10:14 54.10128 -8.99034 35889 ft 463 kts 277°
2026-05-07 10:15 54.11258 -9.09819 35884 ft 462 kts 276°
2026-05-07 10:15 54.12371 -9.20566 35882 ft 462 kts 276°
2026-05-07 10:16 54.13477 -9.31320 35881 ft 462 kts 276°
2026-05-07 10:16 54.14566 -9.42017 35877 ft 461 kts 276°
2026-05-07 10:17 54.15648 -9.52753 35870 ft 461 kts 276°
2026-05-07 10:17 54.16723 -9.63490 35872 ft 460 kts 277°
2026-05-07 10:18 54.17784 -9.74204 35878 ft 459 kts 275°
2026-05-07 10:18 54.18837 -9.84944 35880 ft 458 kts 276°
2026-05-07 10:19 54.19873 -9.95627 35879 ft 458 kts 275°
2026-05-07 10:19 54.20899 -10.06292 35875 ft 458 kts 276°
2026-05-07 10:20 54.21916 -10.16965 35873 ft 458 kts 276°
2026-05-07 10:20 54.22924 -10.27642 35880 ft 458 kts 276°
2026-05-07 10:21 54.23927 -10.38364 35877 ft 457 kts 276°
2026-05-07 10:21 54.24913 -10.49039 35871 ft 456 kts 275°
2026-05-07 10:22 54.25883 -10.59644 35866 ft 456 kts 275°
2026-05-07 10:22 54.26852 -10.70330 35866 ft 455 kts 275°
2026-05-07 10:23 54.27810 -10.80999 35856 ft 454 kts 274°
2026-05-07 10:23 54.28750 -10.91600 35856 ft 454 kts 275°
2026-05-07 10:24 54.29682 -11.02223 35857 ft 453 kts 275°
2026-05-07 10:24 54.30608 -11.12846 35856 ft 453 kts 275°
2026-05-07 10:25 54.31520 -11.23456 35856 ft 453 kts 275°
2026-05-07 10:25 54.32428 -11.34113 35851 ft 452 kts 274°
2026-05-07 10:26 54.33321 -11.44720 35853 ft 451 kts 274°
2026-05-07 10:26 54.34198 -11.55253 35851 ft 451 kts 274°
2026-05-07 10:27 54.35074 -11.65880 35856 ft 451 kts 274°
2026-05-07 10:27 54.35937 -11.76474 35852 ft 450 kts 273°
2026-05-07 10:28 54.36790 -11.87054 35851 ft 450 kts 273°
2026-05-07 10:28 54.37631 -11.97602 35848 ft 449 kts 273°
2026-05-07 10:29 54.38463 -12.08178 35851 ft 448 kts 273°
2026-05-07 10:29 54.39287 -12.18736 35844 ft 448 kts 273°
2026-05-07 10:30 54.40480 -12.34590 35845 ft 447 kts 272°
2026-05-07 10:30 54.40739 -12.45123 35850 ft 443 kts 265°
2026-05-07 10:31 54.40282 -12.55594 35840 ft 440 kts 259°
2026-05-07 10:31 54.39138 -12.65813 36016 ft 437 kts 252°
2026-05-07 10:32 54.37584 -12.75795 35902 ft 435 kts 251°
2026-05-07 10:32 54.36012 -12.85771 35873 ft 435 kts 251°
2026-05-07 10:33 54.34433 -12.95729 35870 ft 435 kts 252°
2026-05-07 10:33 54.32860 -13.05607 35876 ft 434 kts 252°
2026-05-07 10:34 54.31266 -13.15553 35863 ft 433 kts 252°
2026-05-07 10:34 54.29676 -13.25416 35880 ft 434 kts 252°
2026-05-07 10:35 54.28067 -13.35338 35874 ft 434 kts 252°
2026-05-07 10:35 54.26455 -13.45225 35885 ft 434 kts 252°
2026-05-07 10:36 54.24830 -13.55130 35875 ft 433 kts 252°
2026-05-07 10:36 54.23204 -13.64984 35879 ft 433 kts 252°
2026-05-07 10:37 54.21571 -13.74837 35889 ft 433 kts 251°
2026-05-07 10:37 54.19926 -13.84693 35878 ft 433 kts 251°
2026-05-07 10:38 54.18280 -13.94505 35880 ft 433 kts 251°
2026-05-07 10:38 54.16611 -14.04400 35876 ft 433 kts 251°
2026-05-07 10:39 54.14945 -14.14218 35872 ft 433 kts 252°
2026-05-07 10:39 54.13267 -14.24048 35881 ft 434 kts 252°
2026-05-07 10:40 54.11588 -14.33843 35882 ft 433 kts 252°
2026-05-07 10:40 54.09893 -14.43670 35872 ft 433 kts 252°
2026-05-07 10:41 54.08198 -14.53444 35869 ft 433 kts 252°
2026-05-07 10:41 54.06492 -14.63236 35878 ft 433 kts 252°
2026-05-07 10:42 54.04778 -14.73017 35867 ft 433 kts 251°
2026-05-07 10:42 54.03051 -14.82802 35886 ft 434 kts 251°
2026-05-07 10:43 54.01539 -14.92708 35873 ft 435 kts 256°
2026-05-07 10:43 54.00597 -15.02858 35881 ft 437 kts 262°
2026-05-07 10:44 54.00258 -15.13080 35889 ft 439 kts 267°
2026-05-07 10:44 54.00404 -15.23472 35906 ft 439 kts 269°
2026-05-07 10:45 54.00596 -15.33745 35908 ft 439 kts 269°
2026-05-07 10:45 54.00780 -15.44107 35898 ft 439 kts 269°
2026-05-07 10:46 54.00954 -15.54451 35911 ft 439 kts 270°
2026-05-07 10:46 54.01118 -15.64722 35900 ft 439 kts 270°
2026-05-07 10:47 54.01274 -15.75107 35912 ft 439 kts 269°
2026-05-07 10:47 54.01421 -15.85407 35891 ft 439 kts 269°
2026-05-07 10:48 54.01560 -15.95774 35896 ft 440 kts 269°
2026-05-07 10:48 54.01687 -16.06073 35895 ft 440 kts 269°
2026-05-07 10:49 54.01806 -16.16480 35903 ft 440 kts 269°
2026-05-07 10:49 54.01918 -16.26813 35893 ft 440 kts 269°
2026-05-07 10:50 54.02021 -16.37178 35896 ft 440 kts 269°
2026-05-07 10:50 54.02114 -16.47559 35905 ft 440 kts 269°
2026-05-07 10:51 54.02200 -16.57874 35904 ft 440 kts 269°
2026-05-07 10:51 54.02275 -16.68267 35912 ft 441 kts 269°
2026-05-07 10:52 54.02342 -16.78650 35921 ft 441 kts 269°
2026-05-07 10:52 54.02399 -16.89054 35940 ft 441 kts 269°
2026-05-07 10:53 54.02448 -16.99404 35944 ft 441 kts 269°
2026-05-07 10:53 54.02488 -17.09752 35943 ft 442 kts 269°
2026-05-07 10:54 54.02520 -17.20178 35942 ft 442 kts 269°
2026-05-07 10:54 54.02543 -17.30597 35946 ft 442 kts 269°
2026-05-07 10:55 54.02556 -17.40958 35942 ft 441 kts 269°
2026-05-07 10:55 54.02561 -17.51370 35943 ft 441 kts 269°
2026-05-07 10:56 54.02556 -17.61714 35952 ft 440 kts 269°
2026-05-07 10:56 54.02541 -17.72115 35939 ft 441 kts 268°
2026-05-07 10:57 54.02519 -17.82511 35950 ft 441 kts 269°
2026-05-07 10:57 54.02487 -17.92878 35942 ft 442 kts 269°
2026-05-07 10:58 54.02446 -18.03257 35948 ft 442 kts 269°
2026-05-07 10:58 54.02397 -18.13699 35946 ft 442 kts 269°
2026-05-07 10:59 54.02340 -18.24053 35953 ft 441 kts 269°
2026-05-07 10:59 54.02272 -18.34446 35953 ft 441 kts 269°
2026-05-07 11:00 54.02196 -18.44824 35959 ft 440 kts 269°
2026-05-07 11:00 54.02110 -18.55197 35953 ft 440 kts 269°
2026-05-07 11:01 54.02016 -18.65582 35955 ft 441 kts 268°
2026-05-07 11:01 54.01914 -18.75897 35977 ft 441 kts 268°
2026-05-07 11:02 54.01803 -18.86282 35978 ft 441 kts 268°
2026-05-07 11:02 54.01680 -18.96727 35980 ft 442 kts 268°
2026-05-07 11:03 54.01550 -19.07067 35983 ft 443 kts 268°
2026-05-07 11:03 54.01410 -19.17555 35986 ft 443 kts 268°
2026-05-07 11:04 54.01262 -19.28002 35991 ft 444 kts 269°
2026-05-07 11:04 54.01104 -19.38481 36292 ft 446 kts 269°
2026-05-07 11:05 54.01021 -19.43703 36531 ft 445 kts 269°
2026-05-07 11:05 54.00936 -19.48967 36715 ft 446 kts 269°
2026-05-07 11:05 54.00849 -19.54208 36856 ft 447 kts 269°
2026-05-07 11:05 54.00760 -19.59472 37008 ft 448 kts 269°
2026-05-07 11:06 54.00668 -19.64696 37170 ft 449 kts 269°
2026-05-07 11:06 54.00574 -19.69972 37321 ft 450 kts 268°
2026-05-07 11:06 54.00477 -19.75326 37478 ft 450 kts 268°
2026-05-07 11:06 54.00379 -19.80560 37632 ft 451 kts 269°
2026-05-07 11:07 54.00278 -19.85877 37756 ft 452 kts 269°
2026-05-07 11:07 54.00173 -19.91179 37890 ft 453 kts 269°
2026-05-07 11:07 53.99879 -20.01884 37978 ft 455 kts 266°
2026-05-07 11:08 53.99274 -20.12554 37993 ft 455 kts 265°
2026-05-07 11:08 53.98651 -20.23189 38002 ft 456 kts 265°
2026-05-07 11:09 53.98022 -20.33834 38000 ft 455 kts 266°
2026-05-07 11:09 53.97384 -20.44503 37998 ft 455 kts 265°
2026-05-07 11:10 53.96739 -20.55111 38000 ft 455 kts 265°
2026-05-07 11:10 53.96079 -20.65786 37997 ft 455 kts 265°
2026-05-07 11:11 53.95412 -20.76430 38002 ft 455 kts 265°
2026-05-07 11:11 53.94736 -20.87106 38011 ft 456 kts 265°
2026-05-07 11:12 53.94051 -20.97753 38012 ft 456 kts 265°
2026-05-07 11:12 53.93359 -21.08345 38013 ft 456 kts 265°
2026-05-07 11:13 53.92654 -21.18986 38012 ft 456 kts 265°
2026-05-07 11:13 53.91941 -21.29614 38021 ft 456 kts 265°
2026-05-07 11:14 53.91217 -21.40252 38020 ft 456 kts 265°
2026-05-07 11:14 53.90482 -21.50914 38033 ft 455 kts 265°
2026-05-07 11:15 53.89745 -21.61468 38028 ft 455 kts 265°
2026-05-07 11:15 53.88990 -21.72147 38033 ft 456 kts 264°
2026-05-07 11:16 53.88229 -21.82763 38043 ft 456 kts 264°
2026-05-07 11:16 53.87461 -21.93363 38046 ft 456 kts 264°
2026-05-07 11:17 53.86681 -22.03989 38048 ft 456 kts 264°
2026-05-07 11:17 53.85890 -22.14601 38046 ft 457 kts 264°
2026-05-07 11:18 53.85094 -22.25172 38044 ft 457 kts 265°
2026-05-07 11:18 53.84280 -22.35854 38047 ft 457 kts 265°
2026-05-07 11:19 53.83465 -22.46433 38046 ft 457 kts 264°
2026-05-07 11:19 53.82634 -22.57092 38040 ft 458 kts 265°
2026-05-07 11:20 53.81797 -22.67674 38052 ft 458 kts 264°
2026-05-07 11:20 53.80949 -22.78302 38047 ft 458 kts 264°
2026-05-07 11:21 53.80089 -22.88960 38045 ft 459 kts 264°
2026-05-07 11:21 53.79219 -22.99599 38048 ft 459 kts 264°
2026-05-07 11:22 53.78337 -23.10268 38053 ft 459 kts 264°
2026-05-07 11:22 53.77447 -23.20914 38058 ft 460 kts 264°
2026-05-07 11:23 53.76546 -23.31575 38061 ft 460 kts 264°
2026-05-07 11:23 53.75638 -23.42225 38067 ft 460 kts 264°
2026-05-07 11:24 53.74722 -23.52844 38066 ft 459 kts 264°
2026-05-07 11:24 53.73797 -23.63456 38069 ft 459 kts 264°
2026-05-07 11:25 53.72863 -23.74046 38070 ft 459 kts 264°
2026-05-07 11:25 53.71910 -23.84729 38067 ft 460 kts 264°
2026-05-07 11:26 53.70956 -23.95329 38071 ft 460 kts 264°
2026-05-07 11:26 53.69991 -24.05948 38070 ft 461 kts 264°
2026-05-07 11:27 53.69017 -24.16571 38072 ft 461 kts 264°
2026-05-07 11:27 53.68026 -24.27254 38072 ft 461 kts 264°
2026-05-07 11:28 53.67034 -24.37837 38069 ft 461 kts 264°
2026-05-07 11:28 53.66025 -24.48480 38074 ft 461 kts 264°
2026-05-07 11:29 53.65006 -24.59151 38080 ft 461 kts 264°
2026-05-07 11:29 53.63984 -24.69740 38077 ft 461 kts 264°
2026-05-07 11:30 53.62952 -24.80339 38079 ft 462 kts 264°
2026-05-07 11:30 53.61903 -24.91012 38078 ft 463 kts 264°
2026-05-07 11:31 53.60846 -25.01660 38084 ft 462 kts 264°
2026-05-07 11:31 53.59780 -25.12277 38088 ft 463 kts 264°
2026-05-07 11:32 53.58169 -25.28168 38096 ft 463 kts 264°
2026-05-07 11:33 53.57082 -25.38776 38093 ft 462 kts 264°
2026-05-07 11:33 53.55978 -25.49430 38094 ft 462 kts 264°
2026-05-07 11:34 53.54872 -25.60022 38092 ft 462 kts 264°
2026-05-07 11:34 53.53756 -25.70603 38101 ft 462 kts 264°
2026-05-07 11:35 53.52631 -25.81176 38100 ft 462 kts 264°
2026-05-07 11:35 53.51494 -25.91792 38100 ft 462 kts 263°
2026-05-07 11:36 53.50348 -26.02384 38107 ft 462 kts 264°
2026-05-07 11:36 53.49198 -26.12916 38106 ft 463 kts 264°
2026-05-07 11:37 53.48028 -26.23535 38103 ft 463 kts 264°
2026-05-07 11:37 53.46857 -26.34086 38114 ft 462 kts 264°
2026-05-07 11:38 53.45674 -26.44645 38116 ft 462 kts 264°
2026-05-07 11:38 53.44487 -26.55156 38113 ft 461 kts 264°
2026-05-07 11:39 53.43291 -26.65660 38116 ft 461 kts 263°
2026-05-07 11:39 53.42086 -26.76164 38121 ft 462 kts 263°
2026-05-07 11:40 53.40861 -26.86727 38124 ft 462 kts 264°
2026-05-07 11:40 53.39635 -26.97247 38124 ft 462 kts 263°
2026-05-07 11:41 53.38403 -27.07722 38130 ft 461 kts 264°
2026-05-07 11:41 53.37161 -27.18203 38141 ft 461 kts 263°
2026-05-07 11:42 53.35907 -27.28674 38138 ft 460 kts 264°
2026-05-07 11:42 53.34654 -27.39075 38136 ft 460 kts 264°
2026-05-07 11:43 53.33379 -27.49583 38147 ft 461 kts 264°
2026-05-07 11:43 53.32103 -27.60019 38144 ft 461 kts 264°
2026-05-07 11:44 53.30811 -27.70487 38152 ft 462 kts 263°
2026-05-07 11:44 53.29512 -27.80930 38143 ft 463 kts 263°
2026-05-07 11:45 53.28203 -27.91381 38152 ft 463 kts 263°
2026-05-07 11:45 53.26882 -28.01861 38150 ft 461 kts 263°
2026-05-07 11:46 53.25564 -28.12233 38157 ft 459 kts 263°
2026-05-07 11:46 53.24228 -28.22663 38164 ft 459 kts 263°
2026-05-07 11:47 53.22889 -28.33029 38161 ft 459 kts 264°
2026-05-07 11:47 53.21551 -28.43335 38160 ft 459 kts 264°
2026-05-07 11:48 53.20194 -28.53686 38166 ft 459 kts 264°
2026-05-07 11:48 53.18825 -28.64078 38169 ft 459 kts 264°
2026-05-07 11:49 53.17453 -28.74402 38177 ft 458 kts 263°
2026-05-07 11:49 53.16071 -28.84732 38186 ft 458 kts 263°
2026-05-07 11:50 53.14684 -28.95040 38191 ft 457 kts 263°
2026-05-07 11:50 53.13289 -29.05325 38202 ft 456 kts 263°
2026-05-07 11:51 53.11887 -29.15588 38213 ft 458 kts 263°
2026-05-07 11:51 53.10475 -29.25857 38163 ft 456 kts 264°
2026-05-07 11:52 53.09061 -29.36072 38180 ft 457 kts 264°
2026-05-07 11:52 53.07625 -29.46358 38192 ft 456 kts 264°
2026-05-07 11:53 53.06196 -29.56544 38196 ft 455 kts 264°
2026-05-07 11:53 53.04754 -29.66757 38189 ft 454 kts 263°
2026-05-07 11:54 53.03319 -29.76853 38196 ft 454 kts 263°
2026-05-07 11:54 53.01857 -29.87062 38185 ft 453 kts 263°
2026-05-07 11:55 53.00402 -29.97165 38178 ft 452 kts 264°
2026-05-07 11:55 52.99225 -30.07284 38200 ft 448 kts 267°
2026-05-07 11:56 52.98161 -30.17433 38204 ft 448 kts 267°
2026-05-07 11:56 52.97085 -30.27591 38219 ft 447 kts 267°
2026-05-07 11:57 52.96008 -30.37694 38219 ft 448 kts 267°
2026-05-07 11:57 52.94916 -30.47848 38229 ft 448 kts 267°
2026-05-07 11:58 52.93824 -30.57924 38201 ft 447 kts 267°
2026-05-07 11:58 52.92725 -30.67989 38227 ft 446 kts 266°
2026-05-07 11:59 52.91613 -30.78072 38226 ft 446 kts 266°
2026-05-07 11:59 52.90496 -30.88135 38222 ft 446 kts 266°
2026-05-07 12:00 52.89373 -30.98160 38206 ft 445 kts 266°
2026-05-07 12:00 52.88242 -31.08179 38213 ft 445 kts 266°
2026-05-07 12:01 52.87096 -31.18247 38217 ft 445 kts 266°
2026-05-07 12:01 52.85952 -31.28239 38211 ft 446 kts 266°
2026-05-07 12:02 52.84788 -31.38294 38217 ft 447 kts 266°
2026-05-07 12:02 52.83614 -31.48358 38200 ft 447 kts 266°
2026-05-07 12:03 52.82444 -31.58329 38220 ft 446 kts 266°
2026-05-07 12:03 52.81259 -31.68343 38214 ft 447 kts 265°
2026-05-07 12:04 52.80061 -31.78398 38225 ft 448 kts 265°
2026-05-07 12:04 52.78849 -31.88490 38237 ft 449 kts 265°
2026-05-07 12:05 52.77634 -31.98515 38232 ft 449 kts 265°
2026-05-07 12:05 52.76408 -32.08559 38224 ft 449 kts 265°
2026-05-07 12:06 52.75171 -32.18641 38223 ft 449 kts 265°
2026-05-07 12:06 52.73922 -32.28730 38219 ft 449 kts 265°
2026-05-07 12:07 52.72666 -32.38791 38240 ft 450 kts 265°
2026-05-07 12:07 52.71401 -32.48855 38242 ft 450 kts 265°
2026-05-07 12:08 52.70130 -32.58890 38237 ft 451 kts 265°
2026-05-07 12:08 52.68851 -32.68930 38236 ft 452 kts 265°
2026-05-07 12:09 52.67553 -32.79050 38240 ft 451 kts 264°
2026-05-07 12:09 52.66252 -32.89099 38235 ft 452 kts 264°
2026-05-07 12:10 52.64943 -32.99156 38240 ft 452 kts 265°
2026-05-07 12:10 52.63610 -33.09307 38247 ft 453 kts 265°
2026-05-07 12:11 52.62285 -33.19332 38244 ft 453 kts 265°
2026-05-07 12:11 52.60942 -33.29431 38232 ft 452 kts 264°
2026-05-07 12:12 52.59595 -33.39490 38236 ft 453 kts 265°
2026-05-07 12:12 52.58241 -33.49516 38223 ft 453 kts 265°
2026-05-07 12:13 52.56871 -33.59605 38230 ft 453 kts 265°
2026-05-07 12:13 52.55503 -33.69610 38231 ft 454 kts 264°
2026-05-07 12:14 52.54115 -33.79695 38235 ft 455 kts 264°
2026-05-07 12:14 52.52714 -33.89795 38232 ft 455 kts 264°
2026-05-07 12:15 52.51306 -33.99886 38226 ft 455 kts 264°
2026-05-07 12:15 52.49894 -34.09929 38247 ft 455 kts 264°
2026-05-07 12:16 52.48471 -34.19983 38248 ft 454 kts 264°
2026-05-07 12:16 52.47038 -34.30047 38230 ft 453 kts 264°
2026-05-07 12:17 52.45605 -34.40049 38236 ft 454 kts 264°
2026-05-07 12:17 52.44163 -34.50046 38235 ft 454 kts 264°
2026-05-07 12:18 52.42704 -34.60085 38235 ft 453 kts 264°
2026-05-07 12:18 52.41250 -34.70034 38232 ft 452 kts 264°
2026-05-07 12:19 52.39787 -34.79982 38228 ft 453 kts 264°
2026-05-07 12:19 52.38302 -34.90026 38235 ft 453 kts 264°
2026-05-07 12:20 52.36819 -34.99973 38234 ft 452 kts 264°
2026-05-07 12:20 52.35333 -35.09884 38257 ft 452 kts 264°
2026-05-07 12:21 52.33839 -35.19792 38253 ft 453 kts 264°
2026-05-07 12:21 52.32324 -35.29779 38265 ft 452 kts 264°
2026-05-07 12:22 52.30816 -35.39659 38260 ft 452 kts 264°
2026-05-07 12:22 52.29287 -35.49593 38267 ft 453 kts 264°
2026-05-07 12:23 52.27747 -35.59556 38265 ft 453 kts 264°
2026-05-07 12:23 52.26213 -35.69419 38276 ft 453 kts 263°
2026-05-07 12:24 52.24660 -35.79352 38281 ft 452 kts 263°
2026-05-07 12:24 52.23107 -35.89207 38278 ft 452 kts 263°
2026-05-07 12:25 52.21538 -35.99101 38268 ft 452 kts 263°
2026-05-07 12:25 52.19962 -36.09002 38260 ft 452 kts 263°
2026-05-07 12:26 52.18378 -36.18879 38254 ft 452 kts 263°
2026-05-07 12:26 52.16795 -36.28702 38262 ft 453 kts 263°
2026-05-07 12:27 52.15194 -36.38576 38251 ft 453 kts 263°
2026-05-07 12:27 52.13583 -36.48444 38257 ft 452 kts 263°
2026-05-07 12:28 52.11964 -36.58311 38254 ft 452 kts 263°
2026-05-07 12:28 52.10345 -36.68123 38253 ft 452 kts 262°
2026-05-07 12:29 52.08709 -36.77980 38261 ft 454 kts 262°
2026-05-07 12:29 52.07058 -36.87865 38263 ft 454 kts 262°
2026-05-07 12:30 52.05407 -36.97704 38260 ft 454 kts 262°
2026-05-07 12:30 52.03738 -37.07584 38270 ft 455 kts 262°
2026-05-07 12:31 52.02072 -37.17377 38271 ft 453 kts 262°
2026-05-07 12:31 52.00392 -37.27220 38267 ft 453 kts 262°
2026-05-07 12:32 51.98712 -37.37007 38273 ft 454 kts 262°
2026-05-07 12:32 51.97011 -37.46852 38262 ft 453 kts 262°
2026-05-07 12:33 51.94460 -37.61517 38268 ft 451 kts 262°
2026-05-07 12:33 51.92761 -37.71231 38261 ft 453 kts 262°
2026-05-07 12:34 51.91045 -37.80985 38265 ft 452 kts 261°
2026-05-07 12:34 51.89313 -37.90752 38262 ft 452 kts 261°
2026-05-07 12:35 51.87580 -38.00489 38263 ft 451 kts 262°
2026-05-07 12:35 51.85842 -38.10209 38256 ft 451 kts 261°
2026-05-07 12:36 51.84103 -38.19880 38255 ft 453 kts 261°
2026-05-07 12:36 51.82335 -38.29650 38254 ft 452 kts 261°
2026-05-07 12:37 51.80569 -38.39350 38251 ft 451 kts 261°
2026-05-07 12:37 51.78808 -38.48991 38249 ft 452 kts 261°
2026-05-07 12:38 51.77018 -38.58738 38247 ft 453 kts 261°
2026-05-07 12:38 51.75225 -38.68434 38245 ft 453 kts 261°
2026-05-07 12:39 51.73431 -38.78099 38241 ft 454 kts 260°
2026-05-07 12:39 51.71623 -38.87781 38240 ft 454 kts 260°
2026-05-07 12:40 51.69793 -38.97536 38240 ft 455 kts 260°
2026-05-07 12:40 51.67965 -39.07224 38242 ft 454 kts 260°
2026-05-07 12:41 51.66128 -39.16911 38246 ft 454 kts 260°
2026-05-07 12:41 51.64286 -39.26581 38253 ft 453 kts 260°
2026-05-07 12:42 51.62442 -39.36200 38257 ft 453 kts 260°
2026-05-07 12:42 51.60590 -39.45830 38256 ft 453 kts 260°
2026-05-07 12:43 51.58727 -39.55461 38252 ft 452 kts 260°
2026-05-07 12:43 51.56858 -39.65078 38250 ft 453 kts 259°
2026-05-07 12:44 51.54981 -39.74681 38251 ft 453 kts 259°
2026-05-07 12:44 51.53102 -39.84259 38256 ft 452 kts 259°
2026-05-07 12:45 51.51207 -39.93860 38260 ft 453 kts 259°
2026-05-07 12:45 51.49637 -40.03596 38254 ft 448 kts 265°
2026-05-07 12:46 51.48575 -40.13373 38247 ft 445 kts 267°
2026-05-07 12:46 51.47559 -40.23085 38245 ft 446 kts 267°
2026-05-07 12:47 51.46526 -40.32871 38243 ft 446 kts 267°
2026-05-07 12:47 51.45488 -40.42619 38242 ft 446 kts 266°
2026-05-07 12:48 51.44443 -40.52330 38240 ft 446 kts 266°
2026-05-07 12:48 51.43383 -40.62082 38240 ft 446 kts 266°
2026-05-07 12:49 51.42315 -40.71859 38237 ft 446 kts 266°
2026-05-07 12:49 51.41243 -40.81580 38236 ft 446 kts 265°
2026-05-07 12:50 51.40155 -40.91372 38233 ft 446 kts 265°
2026-05-07 12:50 51.39065 -41.01100 38230 ft 446 kts 265°
2026-05-07 12:51 51.37965 -41.10839 38231 ft 447 kts 265°
2026-05-07 12:51 51.36859 -41.20558 38230 ft 447 kts 265°
2026-05-07 12:52 51.35741 -41.30291 38233 ft 447 kts 265°
2026-05-07 12:52 51.34613 -41.40058 38492 ft 448 kts 265°
2026-05-07 12:53 51.34048 -41.44919 38312 ft 446 kts 265°
2026-05-07 12:53 51.33482 -41.49771 38255 ft 446 kts 265°
2026-05-07 12:53 51.32344 -41.59463 38234 ft 446 kts 265°
2026-05-07 12:54 51.31194 -41.69186 38230 ft 446 kts 264°
2026-05-07 12:54 51.30039 -41.78892 38230 ft 446 kts 264°
2026-05-07 12:55 51.28880 -41.88538 38229 ft 445 kts 264°
2026-05-07 12:55 51.27715 -41.98191 38229 ft 445 kts 264°
2026-05-07 12:56 51.26539 -42.07846 38228 ft 446 kts 264°
2026-05-07 12:56 51.25353 -42.17519 38223 ft 446 kts 263°
2026-05-07 12:57 51.24149 -42.27259 38221 ft 447 kts 264°
2026-05-07 12:57 51.22951 -42.36887 38220 ft 447 kts 263°
2026-05-07 12:58 51.21735 -42.46587 38219 ft 447 kts 263°
2026-05-07 12:58 51.20511 -42.56275 38220 ft 446 kts 263°
2026-05-07 12:59 51.19282 -42.65942 38217 ft 446 kts 263°
2026-05-07 12:59 51.18051 -42.75561 38219 ft 446 kts 262°
2026-05-07 13:00 51.16809 -42.85203 38217 ft 446 kts 262°
2026-05-07 13:00 51.15557 -42.94850 38217 ft 447 kts 262°
2026-05-07 13:01 51.14291 -43.04540 38216 ft 447 kts 262°
2026-05-07 13:01 51.13026 -43.14157 38219 ft 447 kts 262°
2026-05-07 13:02 51.11750 -43.23789 38216 ft 447 kts 262°
2026-05-07 13:02 51.10465 -43.33416 38219 ft 446 kts 262°
2026-05-07 13:03 51.09171 -43.43062 38221 ft 446 kts 262°
2026-05-07 13:03 51.07876 -43.52647 38218 ft 446 kts 262°
2026-05-07 13:04 51.06572 -43.62228 38218 ft 446 kts 262°
2026-05-07 13:04 51.05260 -43.71810 38221 ft 446 kts 261°
2026-05-07 13:05 51.03936 -43.81419 38220 ft 446 kts 261°
2026-05-07 13:05 51.02609 -43.90979 38220 ft 445 kts 261°
2026-05-07 13:06 51.01269 -44.00574 38211 ft 445 kts 261°
2026-05-07 13:06 50.99919 -44.10169 38209 ft 445 kts 261°
2026-05-07 13:07 50.98558 -44.19792 38216 ft 445 kts 261°
2026-05-07 13:07 50.97201 -44.29324 38215 ft 446 kts 261°
2026-05-07 13:08 50.95831 -44.38889 38215 ft 447 kts 261°
2026-05-07 13:08 50.94449 -44.48481 38214 ft 447 kts 261°
2026-05-07 13:09 50.93063 -44.58036 38210 ft 447 kts 261°
2026-05-07 13:09 50.91672 -44.67567 38209 ft 448 kts 260°
2026-05-07 13:10 50.90266 -44.77146 38208 ft 449 kts 260°
2026-05-07 13:10 50.88848 -44.86744 38204 ft 449 kts 260°
2026-05-07 13:11 50.87421 -44.96337 38204 ft 449 kts 259°
2026-05-07 13:11 50.85987 -45.05925 38198 ft 448 kts 259°
2026-05-07 13:12 50.84556 -45.15429 38198 ft 447 kts 259°
2026-05-07 13:12 50.83114 -45.24958 38201 ft 448 kts 259°
2026-05-07 13:13 50.81665 -45.34472 38198 ft 448 kts 259°
2026-05-07 13:13 50.80200 -45.44038 38203 ft 448 kts 259°
2026-05-07 13:14 50.78737 -45.53535 38204 ft 448 kts 259°
2026-05-07 13:14 50.77265 -45.63026 38206 ft 447 kts 259°
2026-05-07 13:15 50.75776 -45.72564 38208 ft 447 kts 258°
2026-05-07 13:15 50.74289 -45.82046 38209 ft 447 kts 258°
2026-05-07 13:16 50.72796 -45.91517 38211 ft 447 kts 258°
2026-05-07 13:16 50.71299 -46.00943 38209 ft 447 kts 258°
2026-05-07 13:17 50.69783 -46.10451 38209 ft 447 kts 258°
2026-05-07 13:17 50.68272 -46.19861 38208 ft 447 kts 258°
2026-05-07 13:18 50.66747 -46.29302 38206 ft 446 kts 258°
2026-05-07 13:18 50.65214 -46.38752 38203 ft 446 kts 258°
2026-05-07 13:19 50.63679 -46.48157 38203 ft 445 kts 258°
2026-05-07 13:19 50.62132 -46.57581 38200 ft 445 kts 258°
2026-05-07 13:20 50.60582 -46.66972 38202 ft 446 kts 257°
2026-05-07 13:20 50.59020 -46.76386 38199 ft 446 kts 257°
2026-05-07 13:21 50.57451 -46.85780 38199 ft 446 kts 257°
2026-05-07 13:21 50.55882 -46.95136 38198 ft 446 kts 257°
2026-05-07 13:22 50.54293 -47.04549 38195 ft 445 kts 257°
2026-05-07 13:22 50.52710 -47.13880 38199 ft 444 kts 257°
2026-05-07 13:23 50.51114 -47.23237 38200 ft 443 kts 257°
2026-05-07 13:23 50.49527 -47.32490 38196 ft 443 kts 257°
2026-05-07 13:24 50.47927 -47.41778 38196 ft 443 kts 257°
2026-05-07 13:24 50.46319 -47.51053 38193 ft 442 kts 257°
2026-05-07 13:25 50.44708 -47.60301 38201 ft 441 kts 257°
2026-05-07 13:25 50.43083 -47.69584 38204 ft 441 kts 256°
2026-05-07 13:26 50.41462 -47.78786 38204 ft 440 kts 256°
2026-05-07 13:26 50.39834 -47.87988 38200 ft 439 kts 256°
2026-05-07 13:27 50.38202 -47.97167 38203 ft 438 kts 256°
2026-05-07 13:27 50.36571 -48.06301 38200 ft 438 kts 256°
2026-05-07 13:28 50.34929 -48.15437 38201 ft 437 kts 256°
2026-05-07 13:28 50.33287 -48.24527 38196 ft 437 kts 256°
2026-05-07 13:29 50.31633 -48.33648 38197 ft 437 kts 256°
2026-05-07 13:29 50.29977 -48.42724 38193 ft 436 kts 256°
2026-05-07 13:30 50.28315 -48.51799 38189 ft 435 kts 255°
2026-05-07 13:30 50.26653 -48.60824 38183 ft 435 kts 255°
2026-05-07 13:31 50.24973 -48.69893 38185 ft 434 kts 255°
2026-05-07 13:31 50.23299 -48.78888 38186 ft 434 kts 255°
2026-05-07 13:32 50.21621 -48.87876 38178 ft 433 kts 254°
2026-05-07 13:32 50.19936 -48.96848 38176 ft 433 kts 254°
2026-05-07 13:33 50.18243 -49.05818 38175 ft 433 kts 254°
2026-05-07 13:33 50.16544 -49.14778 38175 ft 432 kts 254°
2026-05-07 13:34 50.13984 -49.28200 38180 ft 432 kts 254°
2026-05-07 13:35 50.12272 -49.37123 38185 ft 431 kts 254°
2026-05-07 13:35 50.10556 -49.46024 38187 ft 429 kts 254°
2026-05-07 13:36 50.08837 -49.54913 38188 ft 429 kts 254°
2026-05-07 13:36 50.07122 -49.63728 38182 ft 428 kts 253°
2026-05-07 13:37 50.05397 -49.72546 38182 ft 428 kts 253°
2026-05-07 13:37 50.03666 -49.81379 38184 ft 428 kts 253°
2026-05-07 13:38 50.01923 -49.90221 38180 ft 427 kts 253°
2026-05-07 13:38 50.00182 -49.98963 38179 ft 427 kts 252°
2026-05-07 13:39 49.98150 -50.07627 38183 ft 427 kts 250°
2026-05-07 13:39 49.96090 -50.16196 38178 ft 426 kts 250°
2026-05-07 13:40 49.94010 -50.24829 38174 ft 426 kts 249°
2026-05-07 13:40 49.91941 -50.33373 38171 ft 426 kts 249°
2026-05-07 13:41 49.89862 -50.41918 38173 ft 425 kts 249°
2026-05-07 13:41 49.87773 -50.50488 38172 ft 424 kts 249°
2026-05-07 13:42 49.85697 -50.58968 38171 ft 424 kts 249°
2026-05-07 13:42 49.83600 -50.67497 38170 ft 424 kts 248°
2026-05-07 13:43 49.81493 -50.76030 38169 ft 425 kts 248°
2026-05-07 13:43 49.79390 -50.84517 38171 ft 424 kts 248°
2026-05-07 13:44 49.77289 -50.92964 38166 ft 424 kts 248°
2026-05-07 13:44 49.75164 -51.01477 38166 ft 425 kts 248°
2026-05-07 13:45 49.73046 -51.09934 38166 ft 424 kts 248°
2026-05-07 13:45 49.70924 -51.18369 38162 ft 424 kts 248°
2026-05-07 13:46 49.68783 -51.26850 38154 ft 423 kts 248°
2026-05-07 13:46 49.66648 -51.35275 38154 ft 423 kts 248°
2026-05-07 13:47 49.64509 -51.43682 38152 ft 422 kts 247°
2026-05-07 13:47 49.62368 -51.52073 38149 ft 422 kts 247°
2026-05-07 13:48 49.60220 -51.60452 38147 ft 423 kts 247°
2026-05-07 13:48 49.58072 -51.68806 38148 ft 423 kts 246°
2026-05-07 13:49 49.55902 -51.77219 38146 ft 423 kts 246°
2026-05-07 13:49 49.53733 -51.85598 38146 ft 423 kts 246°
2026-05-07 13:50 49.51563 -51.93947 38139 ft 422 kts 246°
2026-05-07 13:50 49.49390 -52.02329 38143 ft 423 kts 246°
2026-05-07 13:51 49.47310 -52.10730 38141 ft 422 kts 247°
2026-05-07 13:51 49.45234 -52.19129 38138 ft 422 kts 247°
2026-05-07 13:52 49.43152 -52.27511 38137 ft 422 kts 246°
2026-05-07 13:52 49.41063 -52.35885 38137 ft 422 kts 246°
2026-05-07 13:53 49.38967 -52.44244 38135 ft 422 kts 246°
2026-05-07 13:53 49.36857 -52.52629 38136 ft 422 kts 246°
2026-05-07 13:54 49.34752 -52.60960 38129 ft 422 kts 246°
2026-05-07 13:54 49.32627 -52.69347 38133 ft 422 kts 245°
2026-05-07 13:55 49.30500 -52.77706 38134 ft 421 kts 245°
2026-05-07 13:55 49.28375 -52.86022 38128 ft 420 kts 245°
2026-05-07 13:56 49.26240 -52.94344 38125 ft 421 kts 245°
2026-05-07 13:56 49.24106 -53.02647 38129 ft 421 kts 245°
2026-05-07 13:57 49.21958 -53.10960 38124 ft 421 kts 245°
2026-05-07 13:57 49.19812 -53.19239 38117 ft 420 kts 245°
2026-05-07 13:58 49.17662 -53.27511 38104 ft 420 kts 245°
2026-05-07 13:58 49.15513 -53.35738 38100 ft 420 kts 245°
2026-05-07 13:59 49.13348 -53.44006 38097 ft 420 kts 245°
2026-05-07 13:59 49.11182 -53.52243 38087 ft 419 kts 245°
2026-05-07 14:00 49.09014 -53.60455 38090 ft 419 kts 244°
2026-05-07 14:00 49.06851 -53.68611 38091 ft 418 kts 244°
2026-05-07 14:01 49.04672 -53.76810 38085 ft 418 kts 244°
2026-05-07 14:01 49.02493 -53.84988 38088 ft 418 kts 244°
2026-05-07 14:02 49.00305 -53.93169 38081 ft 417 kts 244°
2026-05-07 14:02 48.98130 -54.01266 38081 ft 418 kts 244°
2026-05-07 14:03 48.95931 -54.09425 38066 ft 418 kts 243°
2026-05-07 14:03 48.93732 -54.17553 37807 ft 417 kts 243°
2026-05-07 14:03 48.92628 -54.21630 38093 ft 418 kts 244°
2026-05-07 14:04 48.91513 -54.25732 37909 ft 417 kts 243°
2026-05-07 14:04 48.90418 -54.29759 38032 ft 418 kts 243°
2026-05-07 14:04 48.89302 -54.33852 38061 ft 418 kts 243°
2026-05-07 14:05 48.87077 -54.41988 38071 ft 418 kts 243°
2026-05-07 14:05 48.84850 -54.50101 38074 ft 418 kts 243°
2026-05-07 14:06 48.82625 -54.58194 38073 ft 418 kts 243°
2026-05-07 14:06 48.80384 -54.66299 38065 ft 417 kts 243°
2026-05-07 14:07 48.78144 -54.74379 38071 ft 418 kts 243°
2026-05-07 14:07 48.75898 -54.82465 38063 ft 418 kts 242°
2026-05-07 14:08 48.73634 -54.90577 38063 ft 418 kts 242°
2026-05-07 14:08 48.71387 -54.98600 38051 ft 417 kts 242°
2026-05-07 14:09 48.69115 -55.06693 38051 ft 417 kts 242°
2026-05-07 14:09 48.66856 -55.14709 38039 ft 417 kts 242°
2026-05-07 14:10 48.64581 -55.22751 38042 ft 417 kts 242°
2026-05-07 14:10 48.62297 -55.30797 38051 ft 418 kts 242°
2026-05-07 14:11 48.60012 -55.38826 38037 ft 419 kts 242°
2026-05-07 14:11 48.57705 -55.46899 38044 ft 419 kts 243°
2026-05-07 14:12 48.55401 -55.54945 38036 ft 420 kts 242°
2026-05-07 14:12 48.53093 -55.62972 38028 ft 419 kts 242°
2026-05-07 14:13 48.50759 -55.71055 38033 ft 420 kts 242°
2026-05-07 14:13 48.48449 -55.79032 38027 ft 419 kts 242°
2026-05-07 14:14 48.46114 -55.87076 38024 ft 420 kts 242°
2026-05-07 14:14 48.43774 -55.95110 38019 ft 420 kts 242°
2026-05-07 14:15 48.41428 -56.03137 38023 ft 420 kts 242°
2026-05-07 14:15 48.39077 -56.11149 38024 ft 419 kts 242°
2026-05-07 14:16 48.36734 -56.19108 38011 ft 420 kts 242°
2026-05-07 14:16 48.34363 -56.27138 38009 ft 420 kts 242°
2026-05-07 14:17 48.31995 -56.35127 38018 ft 420 kts 242°
2026-05-07 14:17 48.29623 -56.43115 37994 ft 420 kts 242°
2026-05-07 14:18 48.27249 -56.51071 37998 ft 420 kts 242°
2026-05-07 14:18 48.24871 -56.59020 37981 ft 420 kts 242°
2026-05-07 14:19 48.22471 -56.67022 37971 ft 420 kts 242°
2026-05-07 14:19 48.20082 -56.74955 37982 ft 420 kts 242°
2026-05-07 14:20 48.17675 -56.82927 37972 ft 421 kts 241°
2026-05-07 14:20 48.15261 -56.90886 37955 ft 422 kts 242°
2026-05-07 14:21 48.12848 -56.98824 37957 ft 421 kts 242°
2026-05-07 14:21 48.10417 -57.06801 37954 ft 420 kts 242°
2026-05-07 14:22 48.07997 -57.14712 37957 ft 420 kts 242°
2026-05-07 14:22 48.05579 -57.22580 37963 ft 420 kts 242°
2026-05-07 14:23 48.03146 -57.30486 37954 ft 420 kts 242°
2026-05-07 14:23 48.00713 -57.38366 37951 ft 419 kts 242°
2026-05-07 14:24 47.98267 -57.46259 37960 ft 419 kts 242°
2026-05-07 14:24 47.95821 -57.54129 37957 ft 420 kts 242°
2026-05-07 14:25 47.93378 -57.61964 37954 ft 419 kts 242°
2026-05-07 14:25 47.90918 -57.69820 37950 ft 419 kts 242°
2026-05-07 14:26 47.88457 -57.77661 37948 ft 419 kts 242°
2026-05-07 14:26 47.85983 -57.85532 37947 ft 419 kts 242°
2026-05-07 14:27 47.83531 -57.93301 37946 ft 419 kts 242°
2026-05-07 14:27 47.81056 -58.01113 37951 ft 418 kts 242°
2026-05-07 14:28 47.78566 -58.08951 37935 ft 418 kts 242°
2026-05-07 14:28 47.76083 -58.16742 37922 ft 418 kts 242°
2026-05-07 14:29 47.73610 -58.24480 37933 ft 418 kts 243°
2026-05-07 14:29 47.71111 -58.32270 37908 ft 417 kts 242°
2026-05-07 14:30 47.68628 -58.39992 37914 ft 416 kts 243°
2026-05-07 14:30 47.66132 -58.47728 37899 ft 417 kts 243°
2026-05-07 14:31 47.63640 -58.55434 37895 ft 416 kts 243°
2026-05-07 14:31 47.61138 -58.63146 37899 ft 416 kts 243°
2026-05-07 14:32 47.58635 -58.70829 37884 ft 416 kts 242°
2026-05-07 14:32 47.56134 -58.78490 37897 ft 416 kts 242°
2026-05-07 14:33 47.53621 -58.86161 37882 ft 416 kts 243°
2026-05-07 14:33 47.51101 -58.93832 37885 ft 415 kts 242°
2026-05-07 14:34 47.48580 -59.01490 37880 ft 415 kts 242°
2026-05-07 14:34 47.46059 -59.09119 37880 ft 415 kts 242°
2026-05-07 14:35 47.43547 -59.16701 37860 ft 413 kts 243°
2026-05-07 14:35 47.41018 -59.24312 37872 ft 413 kts 243°
2026-05-07 14:36 47.38498 -59.31869 37874 ft 413 kts 243°
2026-05-07 14:36 47.35963 -59.39448 37857 ft 412 kts 243°
2026-05-07 14:37 47.33435 -59.46991 37849 ft 412 kts 243°
2026-05-07 14:37 47.29634 -59.58282 37841 ft 412 kts 243°
2026-05-07 14:38 47.27081 -59.65844 37841 ft 412 kts 243°
2026-05-07 14:38 47.24549 -59.73315 37840 ft 411 kts 242°
2026-05-07 14:39 47.22004 -59.80808 37832 ft 411 kts 242°
2026-05-07 14:39 47.19454 -59.88294 37819 ft 411 kts 242°
2026-05-07 14:40 47.16906 -59.95753 37820 ft 410 kts 242°
2026-05-07 14:40 47.14336 -60.03254 37813 ft 410 kts 242°
2026-05-07 14:41 47.11791 -60.10655 37804 ft 410 kts 242°
2026-05-07 14:41 47.09220 -60.18122 37799 ft 410 kts 242°
2026-05-07 14:42 47.06660 -60.25528 37797 ft 410 kts 242°
2026-05-07 14:42 47.04087 -60.32946 37797 ft 410 kts 243°
2026-05-07 14:43 47.01506 -60.40376 37785 ft 411 kts 243°
2026-05-07 14:43 46.98908 -60.47831 37773 ft 411 kts 243°
2026-05-07 14:44 46.96330 -60.55207 37770 ft 411 kts 243°
2026-05-07 14:44 46.93715 -60.62661 37768 ft 410 kts 243°
2026-05-07 14:45 46.91128 -60.70021 37764 ft 410 kts 242°
2026-05-07 14:45 46.88517 -60.77434 37761 ft 410 kts 242°
2026-05-07 14:46 46.85921 -60.84772 37761 ft 409 kts 242°
2026-05-07 14:46 46.83318 -60.92125 37737 ft 410 kts 242°
2026-05-07 14:47 46.80689 -60.99521 37748 ft 410 kts 242°
2026-05-07 14:47 46.78067 -61.06870 37752 ft 409 kts 243°
2026-05-07 14:48 46.75456 -61.14183 37745 ft 409 kts 243°
2026-05-07 14:48 46.72845 -61.21468 37732 ft 407 kts 243°
2026-05-07 14:49 46.70222 -61.28766 37742 ft 407 kts 242°
2026-05-07 14:49 46.67619 -61.35990 37749 ft 405 kts 242°
2026-05-07 14:50 46.64993 -61.43256 37744 ft 405 kts 243°
2026-05-07 14:50 46.62378 -61.50473 37734 ft 404 kts 242°
2026-05-07 14:51 46.59764 -61.57667 37737 ft 403 kts 243°
2026-05-07 14:51 46.57148 -61.64855 37730 ft 404 kts 243°
2026-05-07 14:52 46.54516 -61.72049 37747 ft 403 kts 242°
2026-05-07 14:52 46.51899 -61.79204 37751 ft 403 kts 242°
2026-05-07 14:53 46.49297 -61.86285 37727 ft 400 kts 242°
2026-05-07 14:53 46.46686 -61.93377 37718 ft 400 kts 242°
2026-05-07 14:54 46.44056 -62.00505 37739 ft 399 kts 242°
2026-05-07 14:54 46.41456 -62.07531 37715 ft 399 kts 242°
2026-05-07 14:55 46.38843 -62.14561 37708 ft 398 kts 242°
2026-05-07 14:55 46.36232 -62.21579 37700 ft 396 kts 242°
2026-05-07 14:56 46.33618 -62.28589 37702 ft 396 kts 242°
2026-05-07 14:56 46.31013 -62.35546 37701 ft 396 kts 243°
2026-05-07 14:57 46.28404 -62.42511 37692 ft 396 kts 243°
2026-05-07 14:57 46.25774 -62.49508 37693 ft 395 kts 242°
2026-05-07 14:58 46.23149 -62.56475 37683 ft 395 kts 242°
2026-05-07 14:58 46.20525 -62.63409 37681 ft 396 kts 243°
2026-05-07 14:59 46.17896 -62.70352 37692 ft 396 kts 241°
2026-05-07 14:59 46.15266 -62.77276 37699 ft 394 kts 242°
2026-05-07 15:00 46.12633 -62.84192 37676 ft 396 kts 242°
2026-05-07 15:00 46.09982 -62.91141 37663 ft 396 kts 241°
2026-05-07 15:01 46.07331 -62.98073 37686 ft 397 kts 242°
2026-05-07 15:01 46.04677 -63.04991 37680 ft 396 kts 242°
2026-05-07 15:02 46.02025 -63.11874 37688 ft 396 kts 241°
2026-05-07 15:02 45.99373 -63.18757 37701 ft 394 kts 242°
2026-05-07 15:03 45.96726 -63.25612 37703 ft 394 kts 241°
2026-05-07 15:03 45.94074 -63.32451 37705 ft 393 kts 242°
2026-05-07 15:04 45.91419 -63.39291 37729 ft 391 kts 241°
2026-05-07 15:04 45.88789 -63.46034 37731 ft 389 kts 241°
2026-05-07 15:05 45.86141 -63.52816 37725 ft 389 kts 242°
2026-05-07 15:05 45.83509 -63.59530 37721 ft 388 kts 242°
2026-05-07 15:06 45.80885 -63.66233 37734 ft 388 kts 241°
2026-05-07 15:06 45.78236 -63.72949 37714 ft 385 kts 241°
2026-05-07 15:07 45.75626 -63.79581 37727 ft 385 kts 241°
2026-05-07 15:07 45.73000 -63.86223 37727 ft 384 kts 240°
2026-05-07 15:08 45.70365 -63.92870 37709 ft 383 kts 240°
2026-05-07 15:08 45.67757 -63.99443 37702 ft 382 kts 241°
2026-05-07 15:09 45.65122 -64.06068 37690 ft 383 kts 240°
2026-05-07 15:09 45.62485 -64.12676 37696 ft 384 kts 240°
2026-05-07 15:10 45.59849 -64.19257 37728 ft 384 kts 240°
2026-05-07 15:10 45.57218 -64.25816 37722 ft 382 kts 241°
2026-05-07 15:11 45.54572 -64.32407 37701 ft 381 kts 240°
2026-05-07 15:11 45.51940 -64.38937 37718 ft 382 kts 241°
2026-05-07 15:12 45.49307 -64.45457 37699 ft 381 kts 241°
2026-05-07 15:12 45.46665 -64.51989 37707 ft 382 kts 241°
2026-05-07 15:13 45.44006 -64.58540 37686 ft 383 kts 241°
2026-05-07 15:13 45.41360 -64.65052 37697 ft 382 kts 240°
2026-05-07 15:14 45.38702 -64.71571 37696 ft 382 kts 240°
2026-05-07 15:14 45.36033 -64.78110 37705 ft 383 kts 240°
2026-05-07 15:15 45.33362 -64.84631 37714 ft 383 kts 240°
2026-05-07 15:15 45.30708 -64.91100 37701 ft 382 kts 240°
2026-05-07 15:16 45.28023 -64.97622 37693 ft 383 kts 240°
2026-05-07 15:16 45.25334 -65.04144 37708 ft 383 kts 240°
2026-05-07 15:17 45.22649 -65.10640 37708 ft 382 kts 240°
2026-05-07 15:17 45.19962 -65.17124 37715 ft 383 kts 240°
2026-05-07 15:18 45.17269 -65.23618 37707 ft 383 kts 240°
2026-05-07 15:18 45.14624 -65.29969 37711 ft 382 kts 240°
2026-05-07 15:19 45.11921 -65.36452 37721 ft 381 kts 240°
2026-05-07 15:19 45.09230 -65.42892 37708 ft 381 kts 240°
2026-05-07 15:20 45.06529 -65.49335 37726 ft 381 kts 240°
2026-05-07 15:20 45.03846 -65.55721 37710 ft 380 kts 240°
2026-05-07 15:21 45.01140 -65.62146 37718 ft 381 kts 240°
2026-05-07 15:21 44.98438 -65.68549 37732 ft 380 kts 240°
2026-05-07 15:22 44.95734 -65.74951 37737 ft 379 kts 240°
2026-05-07 15:22 44.93042 -65.81299 37747 ft 379 kts 240°
2026-05-07 15:23 44.90355 -65.87627 37728 ft 378 kts 239°
2026-05-07 15:23 44.87653 -65.93974 37721 ft 377 kts 240°
2026-05-07 15:24 44.84954 -66.00304 37726 ft 377 kts 240°
2026-05-07 15:24 44.82258 -66.06615 37709 ft 376 kts 240°
2026-05-07 15:25 44.79559 -66.12907 37727 ft 377 kts 240°
2026-05-07 15:25 44.76870 -66.19173 37727 ft 377 kts 240°
2026-05-07 15:26 44.74166 -66.25449 37705 ft 376 kts 240°
2026-05-07 15:26 44.71455 -66.31735 37737 ft 376 kts 240°
2026-05-07 15:27 44.68765 -66.37957 37728 ft 375 kts 240°
2026-05-07 15:27 44.66057 -66.44215 37702 ft 375 kts 240°
2026-05-07 15:28 44.63349 -66.50455 37736 ft 376 kts 240°
2026-05-07 15:28 44.60628 -66.56707 37742 ft 374 kts 240°
2026-05-07 15:29 44.57938 -66.62879 37742 ft 374 kts 240°
2026-05-07 15:29 44.55222 -66.69091 37743 ft 374 kts 239°
2026-05-07 15:30 44.52505 -66.75293 37753 ft 373 kts 239°
2026-05-07 15:30 44.49797 -66.81481 37736 ft 374 kts 239°
2026-05-07 15:31 44.47091 -66.87630 37743 ft 373 kts 239°
2026-05-07 15:31 44.44390 -66.93803 37735 ft 372 kts 240°
2026-05-07 15:32 44.41973 -67.00182 37748 ft 371 kts 244°
2026-05-07 15:32 44.39939 -67.06802 37753 ft 372 kts 248°
2026-05-07 15:33 44.38191 -67.13573 37750 ft 374 kts 248°
2026-05-07 15:33 44.36425 -67.20385 37753 ft 373 kts 249°
2026-05-07 15:34 44.34674 -67.27172 37767 ft 372 kts 249°
2026-05-07 15:34 44.32935 -67.33934 37751 ft 372 kts 249°
2026-05-07 15:35 44.31171 -67.40751 37754 ft 372 kts 249°
2026-05-07 15:35 44.29417 -67.47518 37750 ft 372 kts 249°
2026-05-07 15:36 44.27669 -67.54251 37741 ft 372 kts 249°
2026-05-07 15:36 44.25911 -67.60995 37749 ft 372 kts 249°
2026-05-07 15:37 44.24135 -67.67792 37748 ft 373 kts 249°
2026-05-07 15:37 44.22366 -67.74548 37751 ft 373 kts 248°
2026-05-07 15:38 44.20590 -67.81319 37753 ft 372 kts 248°
2026-05-07 15:38 44.18811 -67.88073 37744 ft 372 kts 248°
2026-05-07 15:39 44.17035 -67.94793 37759 ft 372 kts 248°
2026-05-07 15:39 44.15248 -68.01528 37745 ft 371 kts 249°
2026-05-07 15:40 44.13459 -68.08270 37744 ft 372 kts 249°
2026-05-07 15:40 44.11666 -68.14996 37754 ft 372 kts 248°
2026-05-07 15:41 44.09872 -68.21712 37757 ft 373 kts 249°
2026-05-07 15:41 44.08066 -68.28453 37745 ft 374 kts 248°
2026-05-07 15:42 44.06254 -68.35194 37756 ft 373 kts 249°
2026-05-07 15:42 44.04441 -68.41929 37743 ft 374 kts 249°
2026-05-07 15:43 44.02625 -68.48659 37751 ft 374 kts 249°
2026-05-07 15:43 44.00789 -68.55436 37755 ft 374 kts 248°
2026-05-07 15:44 43.98956 -68.62183 37769 ft 375 kts 248°
2026-05-07 15:44 43.97122 -68.68914 37787 ft 375 kts 248°
2026-05-07 15:45 43.95273 -68.75685 37770 ft 373 kts 248°
2026-05-07 15:45 43.93438 -68.82383 37772 ft 374 kts 248°
2026-05-07 15:46 43.90662 -68.92475 37790 ft 374 kts 248°
2026-05-07 15:47 43.88812 -68.99191 37793 ft 375 kts 248°
2026-05-07 15:47 43.86955 -69.05896 37771 ft 373 kts 248°
2026-05-07 15:48 43.85091 -69.12628 37768 ft 375 kts 248°
2026-05-07 15:48 43.83228 -69.19323 37767 ft 375 kts 248°
2026-05-07 15:49 43.81351 -69.26048 37746 ft 376 kts 248°
2026-05-07 15:49 43.79467 -69.32785 37752 ft 374 kts 248°
2026-05-07 15:50 43.77589 -69.39486 37769 ft 375 kts 248°
2026-05-07 15:50 43.75708 -69.46181 37763 ft 374 kts 248°
2026-05-07 15:51 43.73830 -69.52846 37754 ft 374 kts 248°
2026-05-07 15:51 43.71939 -69.59532 37771 ft 375 kts 248°
2026-05-07 15:52 43.70035 -69.66259 37780 ft 375 kts 248°
2026-05-07 15:52 43.68138 -69.72931 37769 ft 376 kts 248°
2026-05-07 15:53 43.66232 -69.79627 37770 ft 376 kts 248°
2026-05-07 15:53 43.64314 -69.86332 37776 ft 376 kts 247°
2026-05-07 15:54 43.62406 -69.92986 37758 ft 375 kts 248°
2026-05-07 15:54 43.60491 -69.99663 37765 ft 376 kts 248°
2026-05-07 15:55 43.58563 -70.06361 37771 ft 375 kts 248°
2026-05-07 15:55 43.56643 -70.13011 37779 ft 375 kts 248°
2026-05-07 15:56 43.54722 -70.19655 37753 ft 375 kts 248°
2026-05-07 15:56 43.52793 -70.26302 37768 ft 375 kts 248°
2026-05-07 15:57 43.50863 -70.32945 37760 ft 376 kts 248°
2026-05-07 15:57 43.48913 -70.39637 37773 ft 375 kts 248°
2026-05-07 15:58 43.46978 -70.46255 37783 ft 376 kts 248°
2026-05-07 15:58 43.44587 -70.52586 37763 ft 376 kts 238°
2026-05-07 15:59 43.41264 -70.58155 37790 ft 380 kts 229°
2026-05-07 15:59 43.37125 -70.62758 37761 ft 387 kts 220°
2026-05-07 16:00 43.32266 -70.66145 37787 ft 399 kts 210°
2026-05-07 16:00 43.27100 -70.68785 37805 ft 399 kts 209°
2026-05-07 16:01 43.21874 -70.71400 37813 ft 397 kts 209°
2026-05-07 16:01 43.16702 -70.73959 37787 ft 396 kts 209°
2026-05-07 16:02 43.11524 -70.76502 37829 ft 397 kts 209°
2026-05-07 16:02 43.06358 -70.79032 37817 ft 394 kts 210°
2026-05-07 16:03 43.01215 -70.81551 37791 ft 395 kts 209°
2026-05-07 16:03 42.96039 -70.84076 37822 ft 395 kts 209°
2026-05-07 16:04 42.90877 -70.86586 37822 ft 394 kts 210°
2026-05-07 16:04 42.85753 -70.89085 37806 ft 392 kts 210°
2026-05-07 16:05 42.80628 -70.91567 37811 ft 392 kts 210°
2026-05-07 16:05 42.75515 -70.94027 37821 ft 388 kts 210°
2026-05-07 16:06 42.70456 -70.96460 37826 ft 388 kts 211°
2026-05-07 16:06 42.65342 -70.98919 37789 ft 388 kts 210°
2026-05-07 16:07 42.60276 -71.01348 37851 ft 385 kts 211°
2026-05-07 16:07 42.55253 -71.03756 37825 ft 385 kts 211°
2026-05-07 16:08 42.50219 -71.06172 37809 ft 385 kts 211°
2026-05-07 16:08 42.45168 -71.08582 37825 ft 383 kts 211°
2026-05-07 16:09 42.40150 -71.10974 37827 ft 383 kts 211°
2026-05-07 16:09 42.35142 -71.13364 37820 ft 382 kts 212°
2026-05-07 16:10 42.30138 -71.15747 37812 ft 381 kts 211°
2026-05-07 16:10 42.25152 -71.18110 37825 ft 379 kts 211°
2026-05-07 16:11 42.20154 -71.20481 37827 ft 379 kts 212°
2026-05-07 16:11 42.15189 -71.22833 37825 ft 378 kts 212°
2026-05-07 16:12 42.10241 -71.25169 37829 ft 379 kts 212°
2026-05-07 16:12 42.05289 -71.27505 37829 ft 376 kts 212°
2026-05-07 16:13 42.00361 -71.29828 37817 ft 376 kts 212°
2026-05-07 16:13 41.95444 -71.32142 37829 ft 376 kts 212°
2026-05-07 16:14 41.90498 -71.34468 37829 ft 377 kts 212°
2026-05-07 16:14 41.88044 -71.35622 37709 ft 378 kts 212°
2026-05-07 16:14 41.85568 -71.36783 37045 ft 379 kts 212°
2026-05-07 16:14 41.83093 -71.37940 36489 ft 376 kts 212°
2026-05-07 16:15 41.80631 -71.39120 36210 ft 371 kts 214°
2026-05-07 16:15 41.78270 -71.40404 35385 ft 365 kts 217°
2026-05-07 16:15 41.75993 -71.41808 34982 ft 362 kts 219°
2026-05-07 16:15 41.73757 -71.43361 34293 ft 358 kts 220°
2026-05-07 16:16 41.71646 -71.44983 33655 ft 353 kts 223°
2026-05-07 16:16 41.69587 -71.46735 33055 ft 348 kts 224°
2026-05-07 16:16 41.67612 -71.48577 32458 ft 344 kts 226°
2026-05-07 16:16 41.65741 -71.50485 31854 ft 341 kts 227°
2026-05-07 16:17 41.63914 -71.52500 31251 ft 339 kts 229°
2026-05-07 16:17 41.62107 -71.54498 30650 ft 338 kts 228°
2026-05-07 16:17 41.60306 -71.56484 30049 ft 338 kts 228°
2026-05-07 16:17 41.58499 -71.58478 29439 ft 337 kts 227°
2026-05-07 16:18 41.56705 -71.60461 28832 ft 337 kts 227°
2026-05-07 16:18 41.54903 -71.62461 28206 ft 337 kts 227°
2026-05-07 16:18 41.53125 -71.64431 27588 ft 337 kts 227°
2026-05-07 16:18 41.51324 -71.66422 26963 ft 338 kts 227°
2026-05-07 16:19 41.49515 -71.68430 26324 ft 339 kts 226°
2026-05-07 16:19 41.47706 -71.70441 25697 ft 342 kts 227°
2026-05-07 16:19 41.45851 -71.72503 25398 ft 351 kts 226°
2026-05-07 16:19 41.43984 -71.74571 25155 ft 354 kts 226°
2026-05-07 16:20 41.42093 -71.76660 24900 ft 354 kts 226°
2026-05-07 16:20 41.40194 -71.78760 24663 ft 352 kts 226°
2026-05-07 16:20 41.38312 -71.80836 24412 ft 353 kts 226°
2026-05-07 16:20 41.36421 -71.82928 24154 ft 352 kts 226°
2026-05-07 16:21 41.34557 -71.84988 23914 ft 350 kts 226°
2026-05-07 16:21 41.32680 -71.87056 23869 ft 351 kts 226°
2026-05-07 16:21 41.30790 -71.89140 23857 ft 351 kts 226°
2026-05-07 16:21 41.28921 -71.91196 23854 ft 352 kts 226°
2026-05-07 16:22 41.27046 -71.93258 23664 ft 347 kts 226°
2026-05-07 16:22 41.25189 -71.95294 23114 ft 345 kts 227°
2026-05-07 16:22 41.23341 -71.97324 22842 ft 347 kts 226°
2026-05-07 16:22 41.21499 -71.99346 22501 ft 345 kts 226°
2026-05-07 16:23 41.19640 -72.01389 22092 ft 343 kts 226°
2026-05-07 16:23 41.17816 -72.03387 21684 ft 340 kts 226°
2026-05-07 16:23 41.16016 -72.05358 21300 ft 337 kts 226°
2026-05-07 16:23 41.14212 -72.07332 20910 ft 335 kts 226°
2026-05-07 16:24 41.12446 -72.09321 20492 ft 330 kts 229°
2026-05-07 16:24 41.10959 -72.11558 20050 ft 323 kts 237°
2026-05-07 16:24 41.09749 -72.14040 19618 ft 319 kts 243°
2026-05-07 16:24 41.08835 -72.16689 19103 ft 319 kts 250°
2026-05-07 16:25 41.08104 -72.19493 18579 ft 321 kts 251°
2026-05-07 16:25 41.07401 -72.22263 18103 ft 320 kts 251°
2026-05-07 16:25 41.06701 -72.25044 17723 ft 319 kts 251°
2026-05-07 16:25 41.06002 -72.27831 17373 ft 317 kts 251°
2026-05-07 16:26 41.05321 -72.30563 17008 ft 316 kts 251°
2026-05-07 16:26 41.04633 -72.33321 16648 ft 314 kts 251°
2026-05-07 16:26 41.03948 -72.36063 16292 ft 313 kts 251°
2026-05-07 16:26 41.03271 -72.38783 15930 ft 313 kts 251°
2026-05-07 16:27 41.02588 -72.41515 15545 ft 311 kts 251°
2026-05-07 16:27 41.01916 -72.44210 15154 ft 309 kts 250°
2026-05-07 16:27 41.01250 -72.46873 14760 ft 309 kts 251°
2026-05-07 16:27 41.00577 -72.49562 14374 ft 307 kts 250°
2026-05-07 16:28 40.99907 -72.52241 13992 ft 306 kts 250°
2026-05-07 16:28 40.99234 -72.54925 13568 ft 304 kts 250°
2026-05-07 16:28 40.98573 -72.57554 13164 ft 303 kts 251°
2026-05-07 16:28 40.97916 -72.60167 12901 ft 295 kts 251°
2026-05-07 16:29 40.97287 -72.62668 12773 ft 282 kts 251°
2026-05-07 16:29 40.96680 -72.65087 12616 ft 270 kts 250°
2026-05-07 16:29 40.96104 -72.67381 12521 ft 258 kts 251°
2026-05-07 16:29 40.95549 -72.69580 12421 ft 246 kts 251°
2026-05-07 16:30 40.95017 -72.71688 12323 ft 236 kts 251°
2026-05-07 16:30 40.94513 -72.73686 12236 ft 228 kts 251°
2026-05-07 16:30 40.94011 -72.75668 12152 ft 224 kts 251°
2026-05-07 16:30 40.93515 -72.77613 12071 ft 222 kts 248°
2026-05-07 16:31 40.92746 -72.79442 12129 ft 232 kts 236°
2026-05-07 16:31 40.91647 -72.81016 11776 ft 240 kts 225°
2026-05-07 16:31 40.90290 -72.82378 11190 ft 248 kts 222°
2026-05-07 16:31 40.88903 -72.83723 10799 ft 248 kts 221°
2026-05-07 16:32 40.87509 -72.85075 10410 ft 248 kts 222°
2026-05-07 16:32 40.86115 -72.86404 10025 ft 248 kts 221°
2026-05-07 16:32 40.84724 -72.87727 9647 ft 248 kts 221°
2026-05-07 16:32 40.83321 -72.89062 9241 ft 249 kts 222°
2026-05-07 16:33 40.81929 -72.90395 8981 ft 250 kts 221°
2026-05-07 16:33 40.80506 -72.91761 8969 ft 252 kts 221°
2026-05-07 16:33 40.79080 -72.93129 8969 ft 253 kts 221°
2026-05-07 16:33 40.77660 -72.94492 8968 ft 253 kts 221°
2026-05-07 16:34 40.76225 -72.95864 8968 ft 253 kts 222°
2026-05-07 16:34 40.74826 -72.97203 8884 ft 249 kts 221°
2026-05-07 16:34 40.73427 -72.98543 8492 ft 251 kts 221°
2026-05-07 16:34 40.72009 -72.99910 8063 ft 252 kts 224°
2026-05-07 16:35 40.70790 -73.01541 7635 ft 249 kts 234°
2026-05-07 16:35 40.69715 -73.03313 7238 ft 250 kts 236°
2026-05-07 16:35 40.68640 -73.05143 6840 ft 251 kts 237°
2026-05-07 16:35 40.67574 -73.06964 6440 ft 253 kts 237°
2026-05-07 16:36 40.66491 -73.08800 6054 ft 254 kts 237°
2026-05-07 16:36 40.65427 -73.10613 5865 ft 247 kts 237°
2026-05-07 16:36 40.64379 -73.12404 5571 ft 246 kts 237°
2026-05-07 16:36 40.63344 -73.14184 5279 ft 244 kts 237°
2026-05-07 16:37 40.62335 -73.15916 5112 ft 237 kts 237°
2026-05-07 16:37 40.61333 -73.17635 4828 ft 236 kts 237°
2026-05-07 16:37 40.60336 -73.19347 4505 ft 237 kts 237°
2026-05-07 16:37 40.59335 -73.21081 4180 ft 237 kts 237°
2026-05-07 16:38 40.58355 -73.22791 3973 ft 237 kts 237°
2026-05-07 16:38 40.57349 -73.24551 3967 ft 240 kts 237°
2026-05-07 16:38 40.56358 -73.26296 3966 ft 240 kts 237°
2026-05-07 16:38 40.55351 -73.28067 3915 ft 236 kts 237°
2026-05-07 16:39 40.54384 -73.29771 3743 ft 230 kts 237°
2026-05-07 16:39 40.53502 -73.31480 3447 ft 227 kts 251°
2026-05-07 16:39 40.53130 -73.33489 3111 ft 225 kts 265°
2026-05-07 16:39 40.52932 -73.35511 2976 ft 223 kts 267°
2026-05-07 16:40 40.52763 -73.37535 2972 ft 225 kts 267°
2026-05-07 16:40 40.52596 -73.39587 2972 ft 224 kts 267°
2026-05-07 16:40 40.52433 -73.41601 2973 ft 223 kts 268°
2026-05-07 16:40 40.52271 -73.43635 2974 ft 223 kts 267°
2026-05-07 16:41 40.52114 -73.45651 2975 ft 221 kts 268°
2026-05-07 16:41 40.52091 -73.47598 2945 ft 205 kts 281°
2026-05-07 16:41 40.52438 -73.49387 2953 ft 199 kts 294°
2026-05-07 16:41 40.53027 -73.51004 2964 ft 197 kts 302°
2026-05-07 16:42 40.53746 -73.52557 2972 ft 198 kts 304°
2026-05-07 16:42 40.54480 -73.54092 2971 ft 198 kts 304°
2026-05-07 16:42 40.55203 -73.55634 2974 ft 197 kts 304°
2026-05-07 16:42 40.55887 -73.57131 2983 ft 181 kts 303°
2026-05-07 16:43 40.56503 -73.58498 2957 ft 169 kts 303°
2026-05-07 16:43 40.57099 -73.59821 2824 ft 169 kts 303°
2026-05-07 16:43 40.57699 -73.61156 2601 ft 168 kts 303°
2026-05-07 16:43 40.58289 -73.62466 2378 ft 168 kts 303°
2026-05-07 16:44 40.58888 -73.63796 2155 ft 168 kts 303°
2026-05-07 16:44 40.59478 -73.65107 1930 ft 167 kts 302°
2026-05-07 16:44 40.60062 -73.66402 1694 ft 158 kts 303°
2026-05-07 16:44 40.60599 -73.67596 1475 ft 148 kts 303°
2026-05-07 16:45 40.61126 -73.68749 1303 ft 146 kts 303°
2026-05-07 16:45 40.61650 -73.69907 1138 ft 146 kts 302°
2026-05-07 16:45 40.62156 -73.71059 953 ft 146 kts 302°
2026-05-07 16:45 40.62672 -73.72195 761 ft 145 kts 303°
2026-05-07 16:46 40.63203 -73.73336 551 ft 144 kts 303°
2026-05-07 16:46 40.63708 -73.74458 364 ft 142 kts 302°
2026-05-07 16:46 40.64202 -73.75562 168 ft 140 kts 302°
2026-05-07 16:46 40.64688 -73.76619 34 ft 126 kts 300°
2026-05-07 16:47 40.65065 -73.77452 25 ft 81 kts 300°
2026-05-07 16:47 40.65266 -73.77898 25 ft 43 kts 302°
2026-05-07 16:47 40.65387 -73.78160 25 ft 26 kts 301°
2026-05-07 16:47 40.65428 -73.78290 25 ft 10 kts 263°
2026-05-07 16:48 40.65393 -73.78375 25 ft 9 kts 235°
2026-05-07 16:48 40.65383 -73.78394 25 ft 3 kts 236°
2026-05-07 16:48 40.65382 -73.78397 25 ft 0 kts 236°
2026-05-07 16:48 40.65379 -73.78400 25 ft 0 kts 211°
2026-05-07 16:49 40.65370 -73.78398 25 ft 1 kts 155°
2026-05-07 16:49 40.65356 -73.78371 25 ft 6 kts 123°
2026-05-07 16:49 40.65324 -73.78307 25 ft 10 kts 122°
2026-05-07 16:49 40.65279 -73.78207 25 ft 14 kts 120°
2026-05-07 16:50 40.65224 -73.78085 25 ft 17 kts 121°
2026-05-07 16:50 40.65158 -73.77941 25 ft 19 kts 121°
2026-05-07 16:50 40.65085 -73.77777 25 ft 21 kts 121°
2026-05-07 16:50 40.65006 -73.77604 25 ft 23 kts 121°
2026-05-07 16:51 40.64917 -73.77409 25 ft 25 kts 120°
2026-05-07 16:51 40.64821 -73.77194 25 ft 28 kts 120°
2026-05-07 16:51 40.64690 -73.77006 25 ft 27 kts 158°
2026-05-07 16:51 40.64496 -73.76987 25 ft 25 kts 182°
2026-05-07 16:52 40.64324 -73.77068 25 ft 27 kts 211°
2026-05-07 16:52 40.64154 -73.77201 25 ft 29 kts 210°
2026-05-07 16:52 40.63977 -73.77341 25 ft 27 kts 210°
2026-05-07 16:52 40.63808 -73.77473 25 ft 29 kts 211°
2026-05-07 16:53 40.63623 -73.77618 25 ft 31 kts 210°
2026-05-07 16:53 40.63425 -73.77773 21 ft 30 kts 211°
2026-05-07 16:53 40.63327 -73.77975 21 ft 27 kts 265°
2026-05-07 16:53 40.63396 -73.78209 21 ft 28 kts 301°
2026-05-07 16:54 40.63500 -73.78439 21 ft 30 kts 301°
2026-05-07 16:54 40.63604 -73.78670 21 ft 28 kts 300°
2026-05-07 16:54 40.63706 -73.78894 22 ft 29 kts 301°
2026-05-07 16:54 40.63812 -73.79127 22 ft 30 kts 300°
2026-05-07 16:55 40.63880 -73.79279 22 ft 10 kts 300°
2026-05-07 16:55 40.63915 -73.79311 23 ft 7 kts 355°
2026-05-07 16:55 40.63964 -73.79279 24 ft 9 kts 45°
2026-05-07 16:55 40.64016 -73.79211 25 ft 10 kts 44°
2026-05-07 16:56 40.64047 -73.79176 25 ft 2 kts 16°
2026-05-07 16:56 40.64085 -73.79188 25 ft 6 kts 333°
2026-05-07 16:56 40.64114 -73.79211 25 ft 1 kts 327°
2026-05-07 16:57 40.64115 -73.79211 25 ft 0 kts 327°